Time,TemperatureF,DewpointF,PressureIn,WindDirection,WindDirectionDegrees,WindSpeedMPH,WindSpeedGustMPH,Humidity,HourlyPrecipIn,Conditions,Clouds,dailyrainin,SolarRadiationWatts/m^2,SoftwareType,DateUTC
2013-02-14 00:01:00,28.6,26.0,30.39,South,177,1.1,0.0,90,0.00,,,0.00,0.0,WeatherDisplay:10.37,2013-02-14 08:01:00,
2013-02-14 00:05:00,28.5,25.9,30.39,South,177,1.1,1.1,90,0.00,,,0.00,0.0,WeatherDisplay:10.37,2013-02-14 08:05:00,
2013-02-14 00:06:00,28.4,25.8,30.39,South,177,1.1,0.0,90,0.00,,,0.00,0.0,WeatherDisplay:10.37,2013-02-14 08:06:00,
2013-02-14 00:07:00,28.4,25.8,30.39,South,177,1.1,0.0,90,0.00,,,0.00,0.0,WeatherDisplay:10.37,2013-02-14 08:07:00,
2013-02-14 00:10:00,28.4,25.8,30.39,South,177,0.0,1.0,90,0.00,,,0.00,0.0,WeatherDisplay:10.37,2013-02-14 08:10:00,
2013-02-14 00:11:00,28.4,25.8,30.39,South,177,1.1,1.1,90,0.00,,,0.00,0.0,WeatherDisplay:10.37,2013-02-14 08:11:00,
2013-02-14 00:12:00,28.4,25.8,30.39,South,177,1.1,0.0,90,0.00,,,0.00,0.0,WeatherDisplay:10.37,2013-02-14 08:12:00,
2013-02-14 00:15:00,28.2,25.6,30.39,South,177,1.1,1.1,90,0.00,,,0.00,0.0,WeatherDisplay:10.37,2013-02-14 08:15:00,
2013-02-14 00:16:00,28.1,25.5,30.39,South,177,1.1,1.1,90,0.00,,,0.00,0.0,WeatherDisplay:10.37,2013-02-14 08:16:00,
2013-02-14 00:17:00,28.1,25.5,30.39,South,177,1.1,1.1,90,0.00,,,0.00,0.0,WeatherDisplay:10.37,2013-02-14 08:17:00,
2013-02-14 00:20:00,27.8,25.2,30.39,South,177,1.1,1.1,90,0.00,,,0.00,0.0,WeatherDisplay:10.37,2013-02-14 08:20:00,
2013-02-14 00:22:00,27.8,25.2,30.39,South,177,1.1,1.1,90,0.00,,,0.00,0.0,WeatherDisplay:10.37,2013-02-14 08:22:00,
2013-02-14 00:25:00,27.6,25.1,30.39,South,177,0.0,0.0,90,0.00,,,0.00,0.0,WeatherDisplay:10.37,2013-02-14 08:25:00,
2013-02-14 00:27:00,27.6,25.1,30.39,South,177,1.1,1.1,90,0.00,,,0.00,0.0,WeatherDisplay:10.37,2013-02-14 08:27:00,
2013-02-14 00:30:00,27.8,25.5,30.39,South,177,1.1,1.1,91,0.00,,,0.00,0.0,WeatherDisplay:10.37,2013-02-14 08:30:00,
2013-02-14 00:32:00,27.8,25.5,30.39,South,177,1.1,1.1,91,0.00,,,0.00,0.0,WeatherDisplay:10.37,2013-02-14 08:32:00,
2013-02-14 00:33:00,27.8,25.5,30.39,South,177,1.1,1.1,91,0.00,,,0.00,0.0,WeatherDisplay:10.37,2013-02-14 08:33:00,
2013-02-14 00:35:00,27.8,25.5,30.40,South,177,2.3,2.3,91,0.00,,,0.00,0.0,WeatherDisplay:10.37,2013-02-14 08:35:00,
2013-02-14 00:37:00,27.7,25.2,30.40,South,177,3.5,3.5,90,0.00,,,0.00,0.0,WeatherDisplay:10.37,2013-02-14 08:37:00,
2013-02-14 00:38:00,27.6,25.1,30.40,South,177,3.5,3.5,90,0.00,,,0.00,0.0,WeatherDisplay:10.37,2013-02-14 08:38:00,
2013-02-14 00:41:00,27.5,25.0,30.40,South,177,1.1,0.0,90,0.00,,,0.00,0.0,WeatherDisplay:10.37,2013-02-14 08:41:00,
2013-02-14 00:42:00,27.4,24.9,30.40,South,177,1.1,1.1,90,0.00,,,0.00,0.0,WeatherDisplay:10.37,2013-02-14 08:42:00,
2013-02-14 00:43:00,27.4,24.9,30.40,South,177,1.1,1.1,90,0.00,,,0.00,0.0,WeatherDisplay:10.37,2013-02-14 08:43:00,
2013-02-14 00:46:00,27.3,24.8,30.40,SE,132,2.3,2.3,90,0.00,,,0.00,0.0,WeatherDisplay:10.37,2013-02-14 08:46:00,
2013-02-14 00:47:00,27.3,24.8,30.40,SE,132,1.1,0.0,90,0.00,,,0.00,0.0,WeatherDisplay:10.37,2013-02-14 08:47:00,
2013-02-14 00:48:00,27.2,24.7,30.40,SE,132,1.1,0.0,90,0.00,,,0.00,0.0,WeatherDisplay:10.37,2013-02-14 08:48:00,
2013-02-14 00:51:00,27.2,24.7,30.40,SE,132,1.1,0.0,90,0.00,,,0.00,0.0,WeatherDisplay:10.37,2013-02-14 08:51:00,
2013-02-14 00:52:00,27.2,24.7,30.40,SE,132,1.1,1.1,90,0.00,,,0.00,0.0,WeatherDisplay:10.37,2013-02-14 08:52:00,
2013-02-14 00:53:00,27.2,24.7,30.40,SE,132,1.1,1.1,90,0.00,,,0.00,0.0,WeatherDisplay:10.37,2013-02-14 08:53:00,
2013-02-14 00:56:00,27.0,24.5,30.40,SE,132,2.3,2.3,90,0.00,,,0.00,0.0,WeatherDisplay:10.37,2013-02-14 08:56:00,
2013-02-14 00:58:00,27.0,24.5,30.40,SE,132,2.3,2.3,90,0.00,,,0.00,0.0,WeatherDisplay:10.37,2013-02-14 08:58:00,
2013-02-14 01:01:00,26.9,24.4,30.40,SE,132,1.1,0.0,90,0.00,,,0.00,0.0,WeatherDisplay:10.37,2013-02-14 09:01:00,
2013-02-14 01:03:00,26.9,24.4,30.40,SE,132,0.0,0.0,90,0.00,,,0.00,0.0,WeatherDisplay:10.37,2013-02-14 09:03:00,
2013-02-14 01:06:00,26.7,24.2,30.40,SE,132,0.0,0.0,90,0.00,,,0.00,0.0,WeatherDisplay:10.37,2013-02-14 09:06:00,
2013-02-14 01:08:00,26.7,24.2,30.40,SE,132,0.0,0.0,90,0.00,,,0.00,0.0,WeatherDisplay:10.37,2013-02-14 09:08:00,
2013-02-14 01:09:00,26.6,24.1,30.40,SE,132,0.0,0.1,90,0.00,,,0.00,0.0,WeatherDisplay:10.37,2013-02-14 09:09:00,
2013-02-14 01:12:00,26.6,24.1,30.40,SE,132,1.1,1.1,90,0.00,,,0.00,0.0,WeatherDisplay:10.37,2013-02-14 09:12:00,
2013-02-14 01:13:00,26.6,24.1,30.40,SE,134,1.1,1.1,90,0.00,,,0.00,0.0,WeatherDisplay:10.37,2013-02-14 09:13:00,
2013-02-14 01:14:00,26.7,24.2,30.40,SE,134,1.1,1.1,90,0.00,,,0.00,0.0,WeatherDisplay:10.37,2013-02-14 09:14:00,
2013-02-14 01:17:00,26.6,24.3,30.40,SE,134,1.1,1.1,91,0.00,,,0.00,0.0,WeatherDisplay:10.37,2013-02-14 09:17:00,
2013-02-14 01:18:00,26.6,24.3,30.40,SE,133,1.1,0.0,91,0.00,,,0.00,0.0,WeatherDisplay:10.37,2013-02-14 09:18:00,
2013-02-14 01:19:00,26.6,24.3,30.40,SE,133,1.1,0.0,91,0.00,,,0.00,0.0,WeatherDisplay:10.37,2013-02-14 09:19:00,
2013-02-14 01:22:00,26.5,24.2,30.40,SE,133,1.1,0.0,91,0.00,,,0.00,0.0,WeatherDisplay:10.37,2013-02-14 09:22:00,
2013-02-14 01:23:00,26.5,24.2,30.40,SE,133,1.0,0.0,91,0.00,,,0.00,0.0,WeatherDisplay:10.37,2013-02-14 09:23:00,
2013-02-14 01:24:00,26.5,24.2,30.40,SE,133,0.0,0.0,91,0.00,,,0.00,0.0,WeatherDisplay:10.37,2013-02-14 09:24:00,
2013-02-14 01:28:00,26.4,24.1,30.40,SE,134,1.1,1.1,91,0.00,,,0.00,0.0,WeatherDisplay:10.37,2013-02-14 09:28:00,
2013-02-14 01:29:00,26.4,24.1,30.40,SE,134,1.1,1.1,91,0.00,,,0.00,0.0,WeatherDisplay:10.37,2013-02-14 09:29:00,
2013-02-14 01:30:00,26.4,24.1,30.40,SE,134,1.1,1.1,91,0.00,,,0.00,0.0,WeatherDisplay:10.37,2013-02-14 09:30:00,
2013-02-14 01:33:00,26.4,24.1,30.40,SE,134,2.3,0.0,91,0.00,,,0.00,0.0,WeatherDisplay:10.37,2013-02-14 09:33:00,
2013-02-14 01:34:00,26.4,24.1,30.40,SE,134,1.1,1.1,91,0.00,,,0.00,0.0,WeatherDisplay:10.37,2013-02-14 09:34:00,
2013-02-14 01:35:00,26.4,24.1,30.40,SE,134,1.1,0.0,91,0.00,,,0.00,0.0,WeatherDisplay:10.37,2013-02-14 09:35:00,
2013-02-14 01:38:00,26.3,24.0,30.40,SE,134,1.1,1.1,91,0.00,,,0.00,0.0,WeatherDisplay:10.37,2013-02-14 09:38:00,
2013-02-14 01:39:00,26.3,24.0,30.40,SE,134,1.1,1.1,91,0.00,,,0.00,0.0,WeatherDisplay:10.37,2013-02-14 09:39:00,
2013-02-14 01:40:00,26.3,24.0,30.40,SE,134,1.1,1.1,91,0.00,,,0.00,0.0,WeatherDisplay:10.37,2013-02-14 09:40:00,
2013-02-14 01:43:00,26.3,24.0,30.40,SE,134,1.1,1.1,91,0.00,,,0.00,0.0,WeatherDisplay:10.37,2013-02-14 09:43:00,
2013-02-14 01:44:00,26.3,24.0,30.40,SE,134,2.3,2.3,91,0.00,,,0.00,0.0,WeatherDisplay:10.37,2013-02-14 09:44:00,
2013-02-14 01:45:00,26.3,24.0,30.40,SE,134,2.3,2.3,91,0.00,,,0.00,0.0,WeatherDisplay:10.37,2013-02-14 09:45:00,
2013-02-14 01:48:00,26.3,24.0,30.40,SE,134,2.3,2.3,91,0.00,,,0.00,0.0,WeatherDisplay:10.37,2013-02-14 09:48:00,
2013-02-14 01:49:00,26.3,24.0,30.40,SE,134,2.3,2.3,91,0.00,,,0.00,0.0,WeatherDisplay:10.37,2013-02-14 09:49:00,
2013-02-14 01:50:00,26.3,24.0,30.41,SE,134,2.3,2.3,91,0.00,,,0.00,0.0,WeatherDisplay:10.37,2013-02-14 09:50:00,
2013-02-14 01:51:00,26.4,24.1,30.41,SE,134,2.3,2.3,91,0.00,,,0.00,0.0,WeatherDisplay:10.37,2013-02-14 09:51:00,
2013-02-14 01:53:00,26.5,24.2,30.41,SE,136,2.0,2.0,91,0.00,,,0.00,0.0,WeatherDisplay:10.37,2013-02-14 09:53:00,
2013-02-14 01:54:00,26.5,24.2,30.41,SE,136,2.3,2.3,91,0.00,,,0.00,0.0,WeatherDisplay:10.37,2013-02-14 09:54:00,
2013-02-14 01:55:00,26.6,24.3,30.41,SE,137,2.3,2.3,91,0.00,,,0.00,0.0,WeatherDisplay:10.37,2013-02-14 09:55:00,
2013-02-14 01:56:00,26.7,24.4,30.41,SSE,150,3.0,3.0,91,0.00,,,0.00,0.0,WeatherDisplay:10.37,2013-02-14 09:56:00,
2013-02-14 01:58:00,26.8,24.5,30.41,SSE,150,3.5,3.5,91,0.00,,,0.00,0.0,WeatherDisplay:10.37,2013-02-14 09:58:00,
2013-02-14 01:59:00,26.9,24.6,30.41,SSE,150,2.3,2.3,91,0.00,,,0.00,0.0,WeatherDisplay:10.37,2013-02-14 09:59:00,
2013-02-14 02:00:00,26.9,24.6,30.41,SE,143,1.0,4.0,91,0.00,,,0.00,0.0,WeatherDisplay:10.37,2013-02-14 10:00:00,
2013-02-14 02:01:00,26.9,24.6,30.41,SE,140,4.0,4.0,91,0.00,,,0.00,0.0,WeatherDisplay:10.37,2013-02-14 10:01:00,
2013-02-14 02:04:00,27.0,24.7,30.41,SSE,148,2.3,2.3,91,0.00,,,0.00,0.0,WeatherDisplay:10.37,2013-02-14 10:04:00,
2013-02-14 02:05:00,27.0,24.7,30.41,SSE,154,2.3,2.3,91,0.00,,,0.00,0.0,WeatherDisplay:10.37,2013-02-14 10:05:00,
2013-02-14 02:06:00,27.1,24.8,30.41,SSE,155,3.5,3.5,91,0.00,,,0.00,0.0,WeatherDisplay:10.37,2013-02-14 10:06:00,
2013-02-14 02:09:00,27.1,24.8,30.40,SSE,155,2.3,2.3,91,0.00,,,0.00,0.0,WeatherDisplay:10.37,2013-02-14 10:09:00,
2013-02-14 02:10:00,27.1,24.8,30.41,SSE,155,2.3,2.3,91,0.00,,,0.00,0.0,WeatherDisplay:10.37,2013-02-14 10:10:00,
2013-02-14 02:12:00,27.0,24.7,30.41,SSE,155,1.1,1.1,91,0.00,,,0.00,0.0,WeatherDisplay:10.37,2013-02-14 10:12:00,
2013-02-14 02:14:00,27.0,24.7,30.41,SSE,155,1.1,1.1,91,0.00,,,0.00,0.0,WeatherDisplay:10.37,2013-02-14 10:14:00,
2013-02-14 02:15:00,26.9,24.6,30.41,SSE,155,1.1,1.1,91,0.00,,,0.00,0.0,WeatherDisplay:10.37,2013-02-14 10:15:00,
2013-02-14 02:16:00,26.9,24.6,30.41,SSE,155,1.1,1.1,91,0.00,,,0.00,0.0,WeatherDisplay:10.37,2013-02-14 10:16:00,
2013-02-14 02:17:00,26.7,24.4,30.41,SSE,155,1.1,1.1,91,0.00,,,0.00,0.0,WeatherDisplay:10.37,2013-02-14 10:17:00,
2013-02-14 02:19:00,26.7,24.4,30.41,SSE,155,1.1,1.1,91,0.00,,,0.00,0.0,WeatherDisplay:10.37,2013-02-14 10:19:00,
2013-02-14 02:20:00,26.7,24.4,30.41,SSE,155,1.1,1.1,91,0.00,,,0.00,0.0,WeatherDisplay:10.37,2013-02-14 10:20:00,
2013-02-14 02:21:00,26.7,24.4,30.41,SSE,155,2.3,2.3,91,0.00,,,0.00,0.0,WeatherDisplay:10.37,2013-02-14 10:21:00,
2013-02-14 02:22:00,26.7,24.4,30.41,SSE,155,2.3,2.3,91,0.00,,,0.00,0.0,WeatherDisplay:10.37,2013-02-14 10:22:00,
2013-02-14 02:24:00,26.7,24.4,30.41,SSE,155,2.3,2.3,91,0.00,,,0.00,0.0,WeatherDisplay:10.37,2013-02-14 10:24:00,
2013-02-14 02:25:00,26.7,24.4,30.41,SSE,155,1.1,0.0,91,0.00,,,0.00,0.0,WeatherDisplay:10.37,2013-02-14 10:25:00,
2013-02-14 02:26:00,26.6,24.3,30.41,SSE,155,1.1,1.1,91,0.00,,,0.00,0.0,WeatherDisplay:10.37,2013-02-14 10:26:00,
2013-02-14 02:27:00,26.6,24.3,30.41,SSE,155,2.3,2.3,91,0.00,,,0.00,0.0,WeatherDisplay:10.37,2013-02-14 10:27:00,
2013-02-14 02:29:00,26.6,24.3,30.41,SSE,155,1.1,1.1,91,0.00,,,0.00,0.0,WeatherDisplay:10.37,2013-02-14 10:29:00,
2013-02-14 02:30:00,26.6,24.3,30.41,SSE,155,1.1,1.1,91,0.00,,,0.00,0.0,WeatherDisplay:10.37,2013-02-14 10:30:00,
2013-02-14 02:31:00,26.7,24.4,30.41,SSE,155,2.3,2.3,91,0.00,,,0.00,0.0,WeatherDisplay:10.37,2013-02-14 10:31:00,
2013-02-14 02:32:00,26.9,24.6,30.41,SSE,155,2.3,2.3,91,0.00,,,0.00,0.0,WeatherDisplay:10.37,2013-02-14 10:32:00,
2013-02-14 02:34:00,27.0,25.0,30.41,SSE,155,1.1,1.1,92,0.00,,,0.00,0.0,WeatherDisplay:10.37,2013-02-14 10:34:00,
2013-02-14 02:35:00,27.0,25.0,30.41,SSE,155,1.1,1.1,92,0.00,,,0.00,0.0,WeatherDisplay:10.37,2013-02-14 10:35:00,
2013-02-14 02:36:00,27.1,25.1,30.41,SSE,155,1.1,0.0,92,0.00,,,0.00,0.0,WeatherDisplay:10.37,2013-02-14 10:36:00,
2013-02-14 02:38:00,27.2,25.2,30.41,SSE,155,1.1,1.1,92,0.00,,,0.00,0.0,WeatherDisplay:10.37,2013-02-14 10:38:00,
2013-02-14 02:39:00,27.2,25.2,30.41,SSE,155,1.1,1.1,92,0.00,,,0.00,0.0,WeatherDisplay:10.37,2013-02-14 10:39:00,
2013-02-14 02:40:00,27.1,25.1,30.41,SSE,155,1.1,0.0,92,0.00,,,0.00,0.0,WeatherDisplay:10.37,2013-02-14 10:40:00,
2013-02-14 02:41:00,27.1,24.8,30.41,SSE,155,1.1,1.1,91,0.00,,,0.00,0.0,WeatherDisplay:10.37,2013-02-14 10:41:00,
2013-02-14 02:43:00,27.0,24.7,30.41,SSE,155,1.1,1.1,91,0.00,,,0.00,0.0,WeatherDisplay:10.37,2013-02-14 10:43:00,
2013-02-14 02:44:00,27.0,24.7,30.41,SSE,155,1.1,0.0,91,0.00,,,0.00,0.0,WeatherDisplay:10.37,2013-02-14 10:44:00,
2013-02-14 02:45:00,26.9,24.6,30.41,SSE,155,1.1,1.1,91,0.00,,,0.00,0.0,WeatherDisplay:10.37,2013-02-14 10:45:00,
2013-02-14 02:46:00,26.9,24.6,30.41,SSE,155,1.1,1.1,91,0.00,,,0.00,0.0,WeatherDisplay:10.37,2013-02-14 10:46:00,
2013-02-14 02:48:00,26.8,24.5,30.41,SSE,155,1.1,0.0,91,0.00,,,0.00,0.0,WeatherDisplay:10.37,2013-02-14 10:48:00,
2013-02-14 02:50:00,26.8,24.5,30.41,SSE,155,1.1,1.1,91,0.00,,,0.00,0.0,WeatherDisplay:10.37,2013-02-14 10:50:00,
2013-02-14 02:51:00,27.0,25.0,30.40,SSE,161,3.5,3.5,92,0.00,,,0.00,0.0,WeatherDisplay:10.37,2013-02-14 10:51:00,
2013-02-14 02:53:00,27.2,25.2,30.40,SSE,161,3.5,3.5,92,0.00,,,0.00,0.0,WeatherDisplay:10.37,2013-02-14 10:53:00,
2013-02-14 02:55:00,27.2,25.2,30.40,SSE,161,1.1,1.1,92,0.00,,,0.00,0.0,WeatherDisplay:10.37,2013-02-14 10:55:00,
2013-02-14 02:57:00,27.2,25.2,30.40,SSE,161,2.3,0.0,92,0.00,,,0.00,0.0,WeatherDisplay:10.37,2013-02-14 10:57:00,
2013-02-14 02:59:00,27.1,24.8,30.40,SSE,158,2.0,2.0,91,0.00,,,0.00,0.0,WeatherDisplay:10.37,2013-02-14 10:59:00,
2013-02-14 03:00:00,27.0,24.7,30.40,SSE,158,2.3,2.3,91,0.00,,,0.00,0.0,WeatherDisplay:10.37,2013-02-14 11:00:00,
2013-02-14 03:02:00,26.9,24.6,30.41,SSE,158,2.3,2.3,91,0.00,,,0.00,0.0,WeatherDisplay:10.37,2013-02-14 11:02:00,
2013-02-14 03:04:00,26.7,24.4,30.41,SSE,158,3.5,3.5,91,0.00,,,0.00,0.0,WeatherDisplay:10.37,2013-02-14 11:04:00,
2013-02-14 03:05:00,26.6,24.3,30.41,SSE,158,2.3,2.3,91,0.00,,,0.00,0.0,WeatherDisplay:10.37,2013-02-14 11:05:00,
2013-02-14 03:07:00,26.5,24.2,30.41,SSE,158,1.1,1.1,91,0.00,,,0.00,0.0,WeatherDisplay:10.37,2013-02-14 11:07:00,
2013-02-14 03:09:00,26.4,24.1,30.41,SSE,158,1.1,1.1,91,0.00,,,0.00,0.0,WeatherDisplay:10.37,2013-02-14 11:09:00,
2013-02-14 03:10:00,26.4,24.1,30.41,SSE,157,2.3,2.3,91,0.00,,,0.00,0.0,WeatherDisplay:10.37,2013-02-14 11:10:00,
2013-02-14 03:12:00,26.3,24.0,30.41,SSE,157,2.3,2.3,91,0.00,,,0.00,0.0,WeatherDisplay:10.37,2013-02-14 11:12:00,
2013-02-14 03:14:00,26.3,24.0,30.41,SSE,157,2.3,2.3,91,0.00,,,0.00,0.0,WeatherDisplay:10.37,2013-02-14 11:14:00,
2013-02-14 03:15:00,26.2,23.9,30.41,SSE,157,1.1,1.1,91,0.00,,,0.00,0.0,WeatherDisplay:10.37,2013-02-14 11:15:00,
2013-02-14 03:17:00,26.2,23.9,30.41,SSE,157,2.3,2.3,91,0.00,,,0.00,0.0,WeatherDisplay:10.37,2013-02-14 11:17:00,
2013-02-14 03:18:00,26.1,23.8,30.41,SSE,157,1.1,1.1,91,0.00,,,0.00,0.0,WeatherDisplay:10.37,2013-02-14 11:18:00,
2013-02-14 03:19:00,26.1,23.8,30.41,SSE,157,1.1,1.1,91,0.00,,,0.00,0.0,WeatherDisplay:10.37,2013-02-14 11:19:00,
2013-02-14 03:20:00,26.0,23.7,30.41,SSE,157,1.1,1.1,91,0.00,,,0.00,0.0,WeatherDisplay:10.37,2013-02-14 11:20:00,
2013-02-14 03:22:00,26.1,23.8,30.41,SSE,157,1.1,1.1,91,0.00,,,0.00,0.0,WeatherDisplay:10.37,2013-02-14 11:22:00,
2013-02-14 03:23:00,26.1,23.8,30.41,SSE,157,1.1,0.0,91,0.00,,,0.00,0.0,WeatherDisplay:10.37,2013-02-14 11:23:00,
2013-02-14 03:24:00,26.1,23.8,30.41,SSE,157,1.1,1.1,91,0.00,,,0.00,0.0,WeatherDisplay:10.37,2013-02-14 11:24:00,
2013-02-14 03:25:00,26.0,23.7,30.41,SSE,157,1.1,1.1,91,0.00,,,0.00,0.0,WeatherDisplay:10.37,2013-02-14 11:25:00,
2013-02-14 03:27:00,26.1,23.8,30.41,SSE,157,2.3,2.3,91,0.00,,,0.00,0.0,WeatherDisplay:10.37,2013-02-14 11:27:00,
2013-02-14 03:28:00,26.1,23.8,30.41,SSE,157,2.3,2.3,91,0.00,,,0.00,0.0,WeatherDisplay:10.37,2013-02-14 11:28:00,
2013-02-14 03:29:00,26.1,23.8,30.41,SSE,157,1.1,1.1,91,0.00,,,0.00,0.0,WeatherDisplay:10.37,2013-02-14 11:29:00,
2013-02-14 03:30:00,26.0,23.7,30.41,SSE,157,1.1,0.0,91,0.00,,,0.00,0.0,WeatherDisplay:10.37,2013-02-14 11:30:00,
2013-02-14 03:32:00,26.0,24.0,30.42,SSE,157,0.0,0.0,92,0.00,,,0.00,0.0,WeatherDisplay:10.37,2013-02-14 11:32:00,
2013-02-14 03:33:00,26.0,23.7,30.42,SSE,157,1.1,1.1,91,0.00,,,0.00,0.0,WeatherDisplay:10.37,2013-02-14 11:33:00,
2013-02-14 03:35:00,25.9,23.6,30.42,SSE,157,1.1,1.1,91,0.00,,,0.00,0.0,WeatherDisplay:10.37,2013-02-14 11:35:00,
2013-02-14 03:37:00,25.8,23.5,30.42,SSE,157,1.1,1.1,91,0.00,,,0.00,0.0,WeatherDisplay:10.37,2013-02-14 11:37:00,
2013-02-14 03:38:00,25.7,23.4,30.42,SSE,157,2.0,2.0,91,0.00,,,0.00,0.0,WeatherDisplay:10.37,2013-02-14 11:38:00,
2013-02-14 03:40:00,25.7,23.4,30.42,SSE,157,2.3,0.0,91,0.00,,,0.00,0.0,WeatherDisplay:10.37,2013-02-14 11:40:00,
2013-02-14 03:43:00,25.6,23.3,30.42,SSE,157,1.1,1.1,91,0.00,,,0.00,0.0,WeatherDisplay:10.37,2013-02-14 11:43:00,
2013-02-14 03:45:00,25.6,23.3,30.42,SSE,157,1.1,1.1,91,0.00,,,0.00,0.0,WeatherDisplay:10.37,2013-02-14 11:45:00,
2013-02-14 03:48:00,25.4,23.1,30.42,SSE,157,1.1,1.1,91,0.00,,,0.00,0.0,WeatherDisplay:10.37,2013-02-14 11:48:00,
2013-02-14 03:50:00,25.3,23.0,30.42,ESE,120,3.5,3.5,91,0.00,,,0.00,0.0,WeatherDisplay:10.37,2013-02-14 11:50:00,
2013-02-14 03:53:00,25.2,22.9,30.42,ESE,120,3.5,3.5,91,0.00,,,0.00,0.0,WeatherDisplay:10.37,2013-02-14 11:53:00,
2013-02-14 03:55:00,25.1,22.8,30.42,ESE,121,1.0,4.0,91,0.00,,,0.00,0.0,WeatherDisplay:10.37,2013-02-14 11:55:00,
2013-02-14 03:58:00,25.0,22.7,30.42,ESE,120,2.3,2.3,91,0.00,,,0.00,0.0,WeatherDisplay:10.37,2013-02-14 11:58:00,
2013-02-14 03:59:00,25.1,22.8,30.42,ESE,120,3.0,3.0,91,0.00,,,0.00,0.0,WeatherDisplay:10.37,2013-02-14 11:59:00,
2013-02-14 04:00:00,25.1,22.8,30.42,ESE,120,1.0,3.0,91,0.00,,,0.00,0.0,WeatherDisplay:10.37,2013-02-14 12:00:00,
2013-02-14 04:01:00,25.1,22.8,30.42,ESE,120,1.1,0.0,91,0.00,,,0.00,0.0,WeatherDisplay:10.37,2013-02-14 12:01:00,
2013-02-14 04:03:00,25.1,22.8,30.42,ESE,120,1.1,1.1,91,0.00,,,0.00,0.0,WeatherDisplay:10.37,2013-02-14 12:03:00,
2013-02-14 04:04:00,25.2,22.9,30.42,ESE,120,1.1,1.1,91,0.00,,,0.00,0.0,WeatherDisplay:10.37,2013-02-14 12:04:00,
2013-02-14 04:05:00,25.2,22.9,30.42,ESE,120,2.3,2.3,91,0.00,,,0.00,0.0,WeatherDisplay:10.37,2013-02-14 12:05:00,
2013-02-14 04:06:00,25.2,23.2,30.42,ESE,120,4.0,4.0,92,0.00,,,0.00,0.0,WeatherDisplay:10.37,2013-02-14 12:06:00,
2013-02-14 04:08:00,25.3,23.3,30.42,ESE,119,3.5,3.5,92,0.00,,,0.00,0.0,WeatherDisplay:10.37,2013-02-14 12:08:00,
2013-02-14 04:09:00,25.4,23.4,30.43,ESE,119,4.0,4.0,92,0.00,,,0.00,0.0,WeatherDisplay:10.37,2013-02-14 12:09:00,
2013-02-14 04:10:00,25.5,23.5,30.43,ESE,119,3.5,3.5,92,0.00,,,0.00,0.0,WeatherDisplay:10.37,2013-02-14 12:10:00,
2013-02-14 04:12:00,25.6,23.6,30.43,ESE,119,3.5,3.5,92,0.00,,,0.00,0.0,WeatherDisplay:10.37,2013-02-14 12:12:00,
2013-02-14 04:13:00,25.6,23.6,30.42,ESE,119,3.5,3.5,92,0.00,,,0.00,0.0,WeatherDisplay:10.37,2013-02-14 12:13:00,
2013-02-14 04:15:00,25.6,23.6,30.42,ESE,119,2.3,2.3,92,0.00,,,0.00,0.0,WeatherDisplay:10.37,2013-02-14 12:15:00,
2013-02-14 04:17:00,25.6,23.6,30.42,ESE,119,4.0,4.0,92,0.00,,,0.00,0.0,WeatherDisplay:10.37,2013-02-14 12:17:00,
2013-02-14 04:19:00,25.6,23.6,30.42,ESE,123,5.0,5.0,92,0.00,,,0.00,0.0,WeatherDisplay:10.37,2013-02-14 12:19:00,
2013-02-14 04:20:00,25.7,23.7,30.42,ESE,120,5.0,5.0,92,0.00,,,0.00,0.0,WeatherDisplay:10.37,2013-02-14 12:20:00,
2013-02-14 04:23:00,25.9,23.9,30.42,ESE,119,2.3,2.3,92,0.00,,,0.00,0.0,WeatherDisplay:10.37,2013-02-14 12:23:00,
2013-02-14 04:24:00,25.9,23.9,30.42,ESE,119,2.3,2.3,92,0.00,,,0.00,0.0,WeatherDisplay:10.37,2013-02-14 12:24:00,
2013-02-14 04:25:00,25.9,23.9,30.42,ESE,119,2.3,2.3,92,0.00,,,0.00,0.0,WeatherDisplay:10.37,2013-02-14 12:25:00,
2013-02-14 04:26:00,25.9,23.9,30.42,ESE,119,2.0,2.0,92,0.00,,,0.00,0.0,WeatherDisplay:10.37,2013-02-14 12:26:00,
2013-02-14 04:29:00,26.0,24.0,30.42,ESE,119,1.1,0.0,92,0.00,,,0.00,0.0,WeatherDisplay:10.37,2013-02-14 12:29:00,
2013-02-14 04:31:00,26.0,24.0,30.42,ESE,119,1.1,0.0,92,0.00,,,0.00,0.0,WeatherDisplay:10.37,2013-02-14 12:31:00,
2013-02-14 04:34:00,26.0,24.0,30.43,ESE,119,0.0,0.0,92,0.00,,,0.00,0.0,WeatherDisplay:10.37,2013-02-14 12:34:00,
2013-02-14 04:36:00,26.0,24.0,30.43,ESE,119,0.0,0.0,92,0.00,,,0.00,0.0,WeatherDisplay:10.37,2013-02-14 12:36:00,
2013-02-14 04:39:00,25.9,23.9,30.43,ESE,119,0.0,0.0,92,0.00,,,0.00,0.0,WeatherDisplay:10.37,2013-02-14 12:39:00,
2013-02-14 04:41:00,25.8,23.8,30.43,ESE,119,1.0,1.0,92,0.00,,,0.00,0.0,WeatherDisplay:10.37,2013-02-14 12:41:00,
2013-02-14 04:42:00,25.8,23.8,30.43,ESE,119,0.0,0.5,92,0.00,,,0.00,0.0,WeatherDisplay:10.37,2013-02-14 12:42:00,
2013-02-14 04:44:00,25.8,23.8,30.43,ESE,119,2.3,2.3,92,0.00,,,0.00,0.0,WeatherDisplay:10.37,2013-02-14 12:44:00,
2013-02-14 04:45:00,25.8,23.8,30.43,ESE,119,2.3,2.3,92,0.00,,,0.00,0.0,WeatherDisplay:10.37,2013-02-14 12:45:00,
2013-02-14 04:47:00,25.8,23.8,30.42,ESE,121,1.1,1.1,92,0.00,,,0.00,0.0,WeatherDisplay:10.37,2013-02-14 12:47:00,
2013-02-14 04:49:00,25.9,23.9,30.43,ESE,121,2.3,2.3,92,0.00,,,0.00,0.0,WeatherDisplay:10.37,2013-02-14 12:49:00,
2013-02-14 04:50:00,25.9,23.9,30.43,ESE,121,2.3,2.3,92,0.00,,,0.00,0.0,WeatherDisplay:10.37,2013-02-14 12:50:00,
2013-02-14 04:52:00,26.0,24.0,30.43,ESE,121,1.1,1.1,92,0.00,,,0.00,0.0,WeatherDisplay:10.37,2013-02-14 12:52:00,
2013-02-14 04:54:00,25.9,23.9,30.43,ESE,121,1.1,1.1,92,0.00,,,0.00,0.0,WeatherDisplay:10.37,2013-02-14 12:54:00,
2013-02-14 04:55:00,25.9,23.9,30.43,ESE,121,0.0,1.0,92,0.00,,,0.00,0.0,WeatherDisplay:10.37,2013-02-14 12:55:00,
2013-02-14 04:57:00,25.8,23.8,30.43,ESE,121,1.1,1.1,92,0.00,,,0.00,0.0,WeatherDisplay:10.37,2013-02-14 12:57:00,
2013-02-14 04:58:00,25.8,23.8,30.43,ESE,121,1.1,0.0,92,0.00,,,0.00,0.0,WeatherDisplay:10.37,2013-02-14 12:58:00,
2013-02-14 05:00:00,25.8,23.8,30.43,ESE,121,1.1,1.1,92,0.00,,,0.00,0.0,WeatherDisplay:10.37,2013-02-14 13:00:00,
2013-02-14 05:03:00,25.7,23.7,30.42,ESE,121,2.3,2.3,92,0.00,,,0.00,0.0,WeatherDisplay:10.37,2013-02-14 13:03:00,
2013-02-14 05:05:00,25.6,23.6,30.42,ESE,121,1.1,1.1,92,0.00,,,0.00,0.0,WeatherDisplay:10.37,2013-02-14 13:05:00,
2013-02-14 05:06:00,25.6,23.6,30.42,ESE,121,1.1,1.1,92,0.00,,,0.00,0.0,WeatherDisplay:10.37,2013-02-14 13:06:00,
2013-02-14 05:08:00,25.6,23.6,30.42,ESE,121,1.1,1.1,92,0.00,,,0.00,0.0,WeatherDisplay:10.37,2013-02-14 13:08:00,
2013-02-14 05:11:00,25.4,23.4,30.42,ESE,121,1.1,1.1,92,0.00,,,0.00,0.0,WeatherDisplay:10.37,2013-02-14 13:11:00,
2013-02-14 05:13:00,25.4,23.4,30.42,ESE,121,0.0,0.0,92,0.00,,,0.00,0.0,WeatherDisplay:10.37,2013-02-14 13:13:00,
2013-02-14 05:16:00,25.3,23.3,30.42,ESE,121,1.0,1.0,92,0.00,,,0.00,0.0,WeatherDisplay:10.37,2013-02-14 13:16:00,
2013-02-14 05:18:00,25.3,23.3,30.43,ESE,121,0.0,0.0,92,0.00,,,0.00,0.0,WeatherDisplay:10.37,2013-02-14 13:18:00,
2013-02-14 05:19:00,25.4,23.4,30.43,ESE,121,0.0,0.0,92,0.00,,,0.00,0.0,WeatherDisplay:10.37,2013-02-14 13:19:00,
2013-02-14 05:21:00,25.4,23.4,30.43,ESE,121,1.1,1.1,92,0.00,,,0.00,0.0,WeatherDisplay:10.37,2013-02-14 13:21:00,
2013-02-14 05:24:00,25.4,23.4,30.43,ESE,121,2.3,2.3,92,0.00,,,0.00,0.0,WeatherDisplay:10.37,2013-02-14 13:24:00,
2013-02-14 05:26:00,25.3,23.3,30.43,ESE,121,3.5,3.5,92,0.00,,,0.00,0.0,WeatherDisplay:10.37,2013-02-14 13:26:00,
2013-02-14 05:29:00,25.2,23.2,30.43,ESE,119,3.5,3.5,92,0.00,,,0.00,0.0,WeatherDisplay:10.37,2013-02-14 13:29:00,
2013-02-14 05:31:00,25.2,23.2,30.43,ESE,119,3.5,3.5,92,0.00,,,0.00,0.0,WeatherDisplay:10.37,2013-02-14 13:31:00,
2013-02-14 05:34:00,25.2,23.2,30.42,ESE,119,3.5,3.5,92,0.00,,,0.00,0.0,WeatherDisplay:10.37,2013-02-14 13:34:00,
2013-02-14 05:35:00,25.2,23.2,30.42,ESE,119,0.0,0.0,92,0.00,,,0.00,0.0,WeatherDisplay:10.37,2013-02-14 13:35:00,
2013-02-14 05:36:00,25.3,23.3,30.42,ESE,119,1.1,1.1,92,0.00,,,0.00,0.0,WeatherDisplay:10.37,2013-02-14 13:36:00,
2013-02-14 05:37:00,25.3,23.3,30.42,ESE,119,1.1,1.1,92,0.00,,,0.00,0.0,WeatherDisplay:10.37,2013-02-14 13:37:00,
2013-02-14 05:40:00,25.3,23.3,30.42,ESE,119,1.1,0.0,92,0.00,,,0.00,0.0,WeatherDisplay:10.37,2013-02-14 13:40:00,
2013-02-14 05:41:00,25.4,23.4,30.42,ESE,119,1.1,1.1,92,0.00,,,0.00,0.0,WeatherDisplay:10.37,2013-02-14 13:41:00,
2013-02-14 05:42:00,25.4,23.4,30.42,ESE,119,0.0,0.0,92,0.00,,,0.00,0.0,WeatherDisplay:10.37,2013-02-14 13:42:00,
2013-02-14 05:45:00,25.3,23.3,30.42,ESE,119,0.0,2.0,92,0.00,,,0.00,0.0,WeatherDisplay:10.37,2013-02-14 13:45:00,
2013-02-14 05:47:00,25.3,23.3,30.43,ESE,119,1.1,1.1,92,0.00,,,0.00,0.0,WeatherDisplay:10.37,2013-02-14 13:47:00,
2013-02-14 05:50:00,25.2,23.2,30.43,ESE,119,1.1,1.1,92,0.00,,,0.00,0.0,WeatherDisplay:10.37,2013-02-14 13:50:00,
2013-02-14 05:52:00,25.2,23.2,30.43,ESE,119,1.1,0.0,92,0.00,,,0.00,0.0,WeatherDisplay:10.37,2013-02-14 13:52:00,
2013-02-14 05:53:00,25.2,23.2,30.43,ESE,119,1.1,0.0,92,0.00,,,0.00,0.0,WeatherDisplay:10.37,2013-02-14 13:53:00,
2013-02-14 05:55:00,25.1,23.1,30.43,ESE,119,0.0,0.0,92,0.00,,,0.00,0.0,WeatherDisplay:10.37,2013-02-14 13:55:00,
2013-02-14 05:56:00,25.1,23.1,30.43,ESE,119,0.0,0.0,92,0.00,,,0.00,0.0,WeatherDisplay:10.37,2013-02-14 13:56:00,
2013-02-14 05:57:00,25.1,23.1,30.43,ESE,119,0.0,0.0,92,0.00,,,0.00,0.0,WeatherDisplay:10.37,2013-02-14 13:57:00,
2013-02-14 05:58:00,25.2,23.2,30.43,ESE,119,0.0,0.0,92,0.00,,,0.00,0.0,WeatherDisplay:10.37,2013-02-14 13:58:00,
2013-02-14 06:00:00,25.1,23.1,30.43,ESE,119,1.1,1.1,92,0.00,,,0.00,0.0,WeatherDisplay:10.37,2013-02-14 14:00:00,
2013-02-14 06:02:00,25.1,23.1,30.43,ESE,119,1.0,0.0,92,0.00,,,0.00,0.0,WeatherDisplay:10.37,2013-02-14 14:02:00,
2013-02-14 06:03:00,25.1,23.1,30.43,ESE,119,1.1,1.1,92,0.00,,,0.00,0.0,WeatherDisplay:10.37,2013-02-14 14:03:00,
2013-02-14 06:05:00,25.0,22.7,30.43,ESE,119,1.1,1.1,91,0.00,,,0.00,0.0,WeatherDisplay:10.37,2013-02-14 14:05:00,
2013-02-14 06:07:00,24.9,22.6,30.43,ESE,119,1.1,0.0,91,0.00,,,0.00,0.0,WeatherDisplay:10.37,2013-02-14 14:07:00,
2013-02-14 06:08:00,24.9,22.6,30.43,ESE,119,0.0,0.0,91,0.00,,,0.00,0.0,WeatherDisplay:10.37,2013-02-14 14:08:00,
2013-02-14 06:10:00,24.8,22.5,30.43,ESE,119,0.0,0.0,91,0.00,,,0.00,0.0,WeatherDisplay:10.37,2013-02-14 14:10:00,
2013-02-14 06:12:00,24.8,22.5,30.43,ESE,119,1.1,0.0,91,0.00,,,0.00,0.0,WeatherDisplay:10.37,2013-02-14 14:12:00,
2013-02-14 06:13:00,24.8,22.5,30.43,ESE,119,1.1,0.0,91,0.00,,,0.00,0.0,WeatherDisplay:10.37,2013-02-14 14:13:00,
2013-02-14 06:16:00,24.7,22.4,30.43,ESE,119,1.1,0.0,91,0.00,,,0.00,0.0,WeatherDisplay:10.37,2013-02-14 14:16:00,
2013-02-14 06:17:00,24.6,22.3,30.43,ESE,119,0.0,0.0,91,0.00,,,0.00,0.0,WeatherDisplay:10.37,2013-02-14 14:17:00,
2013-02-14 06:18:00,24.6,22.3,30.43,ESE,119,0.0,0.1,91,0.00,,,0.00,0.0,WeatherDisplay:10.37,2013-02-14 14:18:00,
2013-02-14 06:21:00,24.5,22.2,30.43,ESE,119,0.0,0.0,91,0.00,,,0.00,0.0,WeatherDisplay:10.37,2013-02-14 14:21:00,
2013-02-14 06:23:00,24.5,22.2,30.43,ESE,119,1.1,0.0,91,0.00,,,0.00,0.0,WeatherDisplay:10.37,2013-02-14 14:23:00,
2013-02-14 06:27:00,24.4,22.2,30.43,ESE,119,0.0,0.0,91,0.00,,,0.00,0.0,WeatherDisplay:10.37,2013-02-14 14:27:00,
2013-02-14 06:28:00,24.3,22.1,30.43,ESE,119,1.1,1.1,91,0.00,,,0.00,0.0,WeatherDisplay:10.37,2013-02-14 14:28:00,
2013-02-14 06:32:00,24.4,22.2,30.43,ESE,119,0.0,0.0,91,0.00,,,0.00,0.0,WeatherDisplay:10.37,2013-02-14 14:32:00,
2013-02-14 06:33:00,24.5,22.2,30.43,ESE,119,1.1,0.0,91,0.00,,,0.00,0.0,WeatherDisplay:10.37,2013-02-14 14:33:00,
2013-02-14 06:34:00,24.5,22.2,30.43,ESE,119,1.1,0.0,91,0.00,,,0.00,0.0,WeatherDisplay:10.37,2013-02-14 14:34:00,
2013-02-14 06:37:00,24.7,22.7,30.43,ESE,119,1.1,0.0,92,0.00,,,0.00,0.0,WeatherDisplay:10.37,2013-02-14 14:37:00,
2013-02-14 06:38:00,24.8,22.8,30.43,ESE,119,0.0,0.0,92,0.00,,,0.00,0.0,WeatherDisplay:10.37,2013-02-14 14:38:00,
2013-02-14 06:39:00,24.8,22.8,30.43,ESE,119,0.0,0.0,92,0.00,,,0.00,0.0,WeatherDisplay:10.37,2013-02-14 14:39:00,
2013-02-14 06:42:00,24.8,22.8,30.43,ESE,119,1.1,1.1,92,0.00,,,0.00,0.0,WeatherDisplay:10.37,2013-02-14 14:42:00,
2013-02-14 06:43:00,24.8,22.8,30.43,ESE,119,2.3,2.3,92,0.00,,,0.00,0.0,WeatherDisplay:10.37,2013-02-14 14:43:00,
2013-02-14 06:44:00,24.8,22.8,30.43,ESE,119,2.3,2.3,92,0.00,,,0.00,0.0,WeatherDisplay:10.37,2013-02-14 14:44:00,
2013-02-14 06:47:00,24.6,22.6,30.43,ESE,119,3.5,3.5,92,0.00,,,0.00,0.0,WeatherDisplay:10.37,2013-02-14 14:47:00,
2013-02-14 06:49:00,24.6,22.6,30.43,ESE,119,2.3,2.3,92,0.00,,,0.00,0.0,WeatherDisplay:10.37,2013-02-14 14:49:00,
2013-02-14 06:50:00,24.6,22.6,30.43,ESE,120,3.5,3.5,92,0.00,,,0.00,0.0,WeatherDisplay:10.37,2013-02-14 14:50:00,
2013-02-14 06:51:00,24.6,22.6,30.43,ESE,119,3.5,3.5,92,0.00,,,0.00,0.0,WeatherDisplay:10.37,2013-02-14 14:51:00,
2013-02-14 06:52:00,24.6,22.6,30.43,ESE,119,2.3,2.3,92,0.00,,,0.00,0.0,WeatherDisplay:10.37,2013-02-14 14:52:00,
2013-02-14 06:54:00,24.7,22.7,30.43,ESE,119,2.3,2.3,92,0.00,,,0.00,0.0,WeatherDisplay:10.37,2013-02-14 14:54:00,
2013-02-14 06:55:00,24.7,22.7,30.43,ESE,119,3.0,3.0,92,0.00,,,0.00,0.0,WeatherDisplay:10.37,2013-02-14 14:55:00,
2013-02-14 06:56:00,24.8,22.8,30.43,ESE,119,3.5,3.5,92,0.00,,,0.00,0.0,WeatherDisplay:10.37,2013-02-14 14:56:00,
2013-02-14 06:57:00,24.8,22.8,30.43,ESE,120,2.3,2.3,92,0.00,,,0.00,0.0,WeatherDisplay:10.37,2013-02-14 14:57:00,
2013-02-14 06:59:00,25.0,23.0,30.43,ESE,120,1.1,1.1,92,0.00,,,0.00,0.0,WeatherDisplay:10.37,2013-02-14 14:59:00,
2013-02-14 07:00:00,25.1,23.1,30.43,ESE,120,1.1,1.1,92,0.00,,,0.00,0.0,WeatherDisplay:10.37,2013-02-14 15:00:00,
2013-02-14 07:01:00,25.2,23.2,30.43,ESE,120,2.3,2.3,92,0.00,,,0.00,0.0,WeatherDisplay:10.37,2013-02-14 15:01:00,
2013-02-14 07:02:00,25.2,23.2,30.43,ESE,120,1.1,1.1,92,0.00,,,0.00,0.0,WeatherDisplay:10.37,2013-02-14 15:02:00,
2013-02-14 07:04:00,25.3,23.3,30.44,ESE,120,1.1,0.0,92,0.00,,,0.00,0.0,WeatherDisplay:10.37,2013-02-14 15:04:00,
2013-02-14 07:06:00,25.4,23.4,30.44,ESE,120,0.0,0.2,92,0.00,,,0.00,0.0,WeatherDisplay:10.37,2013-02-14 15:06:00,
2013-02-14 07:07:00,25.4,23.4,30.44,ESE,120,0.0,0.0,92,0.00,,,0.00,0.0,WeatherDisplay:10.37,2013-02-14 15:07:00,
2013-02-14 07:09:00,25.4,23.4,30.44,ESE,120,0.0,0.0,92,0.00,,,0.00,0.0,WeatherDisplay:10.37,2013-02-14 15:09:00,
2013-02-14 07:11:00,25.4,23.4,30.44,ESE,120,0.0,0.0,92,0.00,,,0.00,6.0,WeatherDisplay:10.37,2013-02-14 15:11:00,
2013-02-14 07:12:00,25.4,23.4,30.44,ESE,120,0.0,0.0,92,0.00,CLR,,0.00,6.0,WeatherDisplay:10.37,2013-02-14 15:12:00,
2013-02-14 07:14:00,25.5,23.5,30.44,ESE,120,1.1,1.1,92,0.00,SCT,,0.00,6.0,WeatherDisplay:10.37,2013-02-14 15:14:00,
2013-02-14 07:16:00,25.6,23.6,30.44,ESE,120,2.3,2.3,92,0.00,BKN,,0.00,6.0,WeatherDisplay:10.37,2013-02-14 15:16:00,
2013-02-14 07:17:00,25.6,23.6,30.44,ESE,120,0.0,0.0,92,0.00,BKN,,0.00,6.0,WeatherDisplay:10.37,2013-02-14 15:17:00,
2013-02-14 07:20:00,25.6,23.6,30.44,ESE,120,0.0,2.0,92,0.00,BKN,,0.00,8.4,WeatherDisplay:10.37,2013-02-14 15:20:00,
2013-02-14 07:21:00,25.7,23.7,30.44,ESE,120,1.1,1.1,92,0.00,BKN,,0.00,8.4,WeatherDisplay:10.37,2013-02-14 15:21:00,
2013-02-14 07:22:00,25.8,23.8,30.44,ESE,120,1.1,1.1,92,0.00,BKN,,0.00,8.4,WeatherDisplay:10.37,2013-02-14 15:22:00,
2013-02-14 07:23:00,25.8,23.8,30.44,ESE,120,1.1,1.1,92,0.00,BKN,,0.00,10.8,WeatherDisplay:10.37,2013-02-14 15:23:00,
2013-02-14 07:25:00,25.9,23.9,30.44,ESE,120,1.1,1.1,92,0.00,BKN,,0.00,10.8,WeatherDisplay:10.37,2013-02-14 15:25:00,
2013-02-14 07:26:00,25.9,23.9,30.44,ESE,120,1.1,1.1,92,0.00,BKN,,0.00,10.8,WeatherDisplay:10.37,2013-02-14 15:26:00,
2013-02-14 07:28:00,26.0,24.0,30.44,ESE,120,2.3,2.3,92,0.00,BKN,,0.00,13.2,WeatherDisplay:10.37,2013-02-14 15:28:00,
2013-02-14 07:30:00,26.0,24.0,30.44,ESE,120,0.0,2.0,92,0.00,BKN,,0.00,13.2,WeatherDisplay:10.37,2013-02-14 15:30:00,
2013-02-14 07:32:00,26.0,23.7,30.44,ESE,121,2.3,2.3,91,0.00,BKN,,0.00,14.4,WeatherDisplay:10.37,2013-02-14 15:32:00,
2013-02-14 07:33:00,26.1,23.8,30.44,ESE,121,1.1,1.1,91,0.00,BKN,,0.00,14.4,WeatherDisplay:10.37,2013-02-14 15:33:00,
2013-02-14 07:36:00,26.1,23.8,30.44,ESE,121,1.1,1.1,91,0.00,BKN,,0.00,16.8,WeatherDisplay:10.37,2013-02-14 15:36:00,
2013-02-14 07:37:00,26.1,23.8,30.44,ESE,121,2.3,2.3,91,0.00,BKN,,0.00,19.2,WeatherDisplay:10.37,2013-02-14 15:37:00,
2013-02-14 07:38:00,26.1,23.8,30.44,ESE,121,2.3,2.3,91,0.00,BKN,,0.00,19.2,WeatherDisplay:10.37,2013-02-14 15:38:00,
2013-02-14 07:41:00,26.2,23.9,30.44,ESE,121,2.3,2.3,91,0.00,BKN,,0.00,27.6,WeatherDisplay:10.37,2013-02-14 15:41:00,
2013-02-14 07:42:00,26.2,23.9,30.44,ESE,121,1.1,1.1,91,0.00,BKN,,0.00,30.0,WeatherDisplay:10.37,2013-02-14 15:42:00,
2013-02-14 07:43:00,26.2,23.9,30.44,ESE,121,1.1,1.1,91,0.00,BKN,,0.00,30.0,WeatherDisplay:10.37,2013-02-14 15:43:00,
2013-02-14 07:44:00,26.2,23.9,30.44,ESE,121,2.3,2.3,91,0.00,BKN,,0.00,33.6,WeatherDisplay:10.37,2013-02-14 15:44:00,
2013-02-14 07:47:00,26.3,24.0,30.45,ESE,121,2.3,2.3,91,0.00,SCT,,0.00,44.4,WeatherDisplay:10.37,2013-02-14 15:47:00,
2013-02-14 07:48:00,26.3,24.0,30.45,ESE,121,3.0,3.0,91,0.00,SCT,,0.00,44.4,WeatherDisplay:10.37,2013-02-14 15:48:00,
2013-02-14 07:49:00,26.4,24.1,30.45,ESE,121,3.5,3.5,91,0.00,SCT,,0.00,42.0,WeatherDisplay:10.37,2013-02-14 15:49:00,
2013-02-14 07:53:00,26.6,24.3,30.45,ESE,121,1.1,0.0,91,0.00,SCT,,0.00,61.2,WeatherDisplay:10.37,2013-02-14 15:53:00,
2013-02-14 07:55:00,26.7,24.4,30.45,ESE,121,0.0,0.0,91,0.00,SCT,,0.00,61.2,WeatherDisplay:10.37,2013-02-14 15:55:00,
2013-02-14 07:58:00,26.8,24.5,30.45,ESE,121,0.0,0.0,91,0.00,SCT,,0.00,55.2,WeatherDisplay:10.37,2013-02-14 15:58:00,
2013-02-14 07:59:00,26.9,24.6,30.46,ESE,121,0.0,0.0,91,0.00,SCT,,0.00,61.2,WeatherDisplay:10.37,2013-02-14 15:59:00,
2013-02-14 08:00:00,26.9,24.6,30.46,ESE,121,0.0,0.0,91,0.00,FEW,,0.00,75.6,WeatherDisplay:10.37,2013-02-14 16:00:00,
2013-02-14 08:03:00,27.1,24.8,30.46,ESE,121,3.5,3.5,91,0.00,FEW,,0.00,88.8,WeatherDisplay:10.37,2013-02-14 16:03:00,
2013-02-14 08:04:00,27.2,24.9,30.46,ESE,120,3.5,3.5,91,0.00,FEW,,0.00,92.4,WeatherDisplay:10.37,2013-02-14 16:04:00,
2013-02-14 08:05:00,27.2,24.9,30.46,ESE,108,5.0,5.0,91,0.00,CLR,,0.00,97.2,WeatherDisplay:10.37,2013-02-14 16:05:00,
2013-02-14 08:08:00,27.4,25.1,30.46,ESE,109,3.5,3.5,91,0.00,FEW,,0.00,105.6,WeatherDisplay:10.37,2013-02-14 16:08:00,
2013-02-14 08:09:00,27.5,25.2,30.46,ESE,108,3.5,3.5,91,0.00,FEW,,0.00,105.6,WeatherDisplay:10.37,2013-02-14 16:09:00,
2013-02-14 08:10:00,27.5,25.2,30.46,ESE,108,3.5,3.5,91,0.00,FEW,,0.00,108.0,WeatherDisplay:10.37,2013-02-14 16:10:00,
2013-02-14 08:11:00,27.5,25.2,30.46,ESE,108,2.3,2.3,91,0.00,FEW,,0.00,111.6,WeatherDisplay:10.37,2013-02-14 16:11:00,
2013-02-14 08:13:00,27.6,25.3,30.46,ESE,108,2.3,2.3,91,0.00,CLR,,0.00,122.4,WeatherDisplay:10.37,2013-02-14 16:13:00,
2013-02-14 08:14:00,27.7,25.2,30.46,ESE,108,2.3,2.3,90,0.00,CLR,,0.00,126.0,WeatherDisplay:10.37,2013-02-14 16:14:00,
2013-02-14 08:15:00,27.7,25.4,30.46,ESE,108,2.3,2.3,91,0.00,CLR,,0.00,126.0,WeatherDisplay:10.37,2013-02-14 16:15:00,
2013-02-14 08:16:00,27.8,25.5,30.46,ESE,108,2.3,2.3,91,0.00,CLR,,0.00,135.6,WeatherDisplay:10.37,2013-02-14 16:16:00,
2013-02-14 08:19:00,28.1,25.5,30.46,ESE,108,1.1,0.0,90,0.00,CLR,,0.00,153.6,WeatherDisplay:10.37,2013-02-14 16:19:00,
2013-02-14 08:20:00,28.2,25.6,30.46,ESE,108,2.0,2.0,90,0.00,CLR,,0.00,158.4,WeatherDisplay:10.37,2013-02-14 16:20:00,
2013-02-14 08:21:00,28.3,25.7,30.47,ESE,108,2.3,2.3,90,0.00,CLR,,0.00,162.0,WeatherDisplay:10.37,2013-02-14 16:21:00,
2013-02-14 08:24:00,28.9,26.3,30.46,ESE,108,2.0,2.0,90,0.00,CLR,,0.00,169.2,WeatherDisplay:10.37,2013-02-14 16:24:00,
2013-02-14 08:25:00,29.0,26.4,30.46,ESE,108,1.1,1.1,90,0.00,CLR,,0.00,169.2,WeatherDisplay:10.37,2013-02-14 16:25:00,
2013-02-14 08:26:00,29.1,26.5,30.46,ESE,108,3.5,3.5,90,0.00,CLR,,0.00,170.4,WeatherDisplay:10.37,2013-02-14 16:26:00,
2013-02-14 08:30:00,29.7,26.9,30.46,ESE,108,2.3,2.3,89,0.00,CLR,,0.00,160.8,WeatherDisplay:10.37,2013-02-14 16:30:00,
2013-02-14 08:31:00,29.7,26.9,30.46,ESE,109,2.3,2.3,89,0.00,CLR,,0.00,162.0,WeatherDisplay:10.37,2013-02-14 16:31:00,
2013-02-14 08:35:00,30.3,27.4,30.47,ESE,109,2.3,2.3,89,0.00,CLR,,0.00,202.8,WeatherDisplay:10.37,2013-02-14 16:35:00,
2013-02-14 08:37:00,30.6,27.7,30.47,ESE,109,1.1,1.1,89,0.00,CLR,,0.00,205.2,WeatherDisplay:10.37,2013-02-14 16:37:00,
2013-02-14 08:40:00,31.0,28.2,30.47,ESE,109,0.0,2.0,89,0.00,CLR,,0.00,225.6,WeatherDisplay:10.37,2013-02-14 16:40:00,
2013-02-14 08:42:00,31.6,28.5,30.47,ESE,109,2.3,2.3,88,0.00,CLR,,0.00,248.4,WeatherDisplay:10.37,2013-02-14 16:42:00,
2013-02-14 08:45:00,31.9,28.7,30.47,ESE,109,1.0,2.0,88,0.00,CLR,,0.00,274.8,WeatherDisplay:10.37,2013-02-14 16:45:00,
2013-02-14 08:46:00,32.2,29.0,30.47,ESE,109,2.3,2.3,88,0.00,CLR,,0.00,283.2,WeatherDisplay:10.37,2013-02-14 16:46:00,
2013-02-14 08:47:00,32.5,29.1,30.47,ESE,109,1.1,0.0,87,0.00,CLR,,0.00,303.6,WeatherDisplay:10.37,2013-02-14 16:47:00,
2013-02-14 08:50:00,33.0,29.6,30.47,ESE,113,3.5,3.5,87,0.00,CLR,,0.00,318.0,WeatherDisplay:10.37,2013-02-14 16:50:00,
2013-02-14 08:51:00,33.2,29.8,30.47,ESE,113,3.5,3.5,87,0.00,CLR,,0.00,312.0,WeatherDisplay:10.37,2013-02-14 16:51:00,
2013-02-14 08:53:00,33.5,29.8,30.47,ESE,122,2.3,2.3,86,0.00,CLR,,0.00,306.0,WeatherDisplay:10.37,2013-02-14 16:53:00,
2013-02-14 08:55:00,33.9,30.2,30.48,ESE,122,2.3,2.3,86,0.00,CLR,,0.00,303.6,WeatherDisplay:10.37,2013-02-14 16:55:00,
2013-02-14 08:56:00,34.0,30.0,30.48,ESE,122,2.3,2.3,85,0.00,CLR,,0.00,303.6,WeatherDisplay:10.37,2013-02-14 16:56:00,
2013-02-14 08:58:00,34.4,30.4,30.47,ESE,123,4.6,4.6,85,0.00,CLR,,0.00,316.8,WeatherDisplay:10.37,2013-02-14 16:58:00,
2013-02-14 09:00:00,34.7,30.7,30.47,ESE,123,4.0,4.0,85,0.00,CLR,,0.00,322.8,WeatherDisplay:10.37,2013-02-14 17:00:00,
2013-02-14 09:01:00,34.9,30.6,30.47,ESE,122,3.5,3.5,84,0.00,CLR,,0.00,326.4,WeatherDisplay:10.37,2013-02-14 17:01:00,
2013-02-14 09:03:00,35.2,30.9,30.48,SE,132,4.6,4.6,84,0.00,CLR,,0.00,331.2,WeatherDisplay:10.37,2013-02-14 17:03:00,
2013-02-14 09:05:00,35.5,31.1,30.48,ESE,123,3.5,3.5,84,0.00,CLR,,0.00,333.6,WeatherDisplay:10.37,2013-02-14 17:05:00,
2013-02-14 09:06:00,35.6,30.9,30.48,ESE,119,3.0,3.0,83,0.00,CLR,,0.00,325.2,WeatherDisplay:10.37,2013-02-14 17:06:00,
2013-02-14 09:08:00,35.9,31.2,30.48,ESE,118,3.5,3.5,83,0.00,CLR,,0.00,306.0,WeatherDisplay:10.37,2013-02-14 17:08:00,
2013-02-14 09:11:00,36.0,31.3,30.47,ESE,116,3.5,3.5,83,0.00,CLR,,0.00,322.8,WeatherDisplay:10.37,2013-02-14 17:11:00,
2013-02-14 09:14:00,36.3,31.6,30.47,SE,138,3.0,3.0,83,0.00,CLR,,0.00,333.6,WeatherDisplay:10.37,2013-02-14 17:14:00,
2013-02-14 09:16:00,36.4,31.1,30.47,SE,126,4.6,4.6,81,0.00,CLR,,0.00,345.6,WeatherDisplay:10.37,2013-02-14 17:16:00,
2013-02-14 09:17:00,36.4,31.1,30.47,SE,128,4.6,4.6,81,0.00,CLR,,0.00,354.0,WeatherDisplay:10.37,2013-02-14 17:17:00,
2013-02-14 09:19:00,36.4,31.1,30.47,SE,129,5.8,5.8,81,0.00,CLR,,0.00,370.8,WeatherDisplay:10.37,2013-02-14 17:19:00,
2013-02-14 09:21:00,36.7,31.7,30.47,ESE,115,3.5,3.5,82,0.00,CLR,,0.00,379.2,WeatherDisplay:10.37,2013-02-14 17:21:00,
2013-02-14 09:22:00,36.8,31.5,30.47,SE,142,4.0,4.0,81,0.00,CLR,,0.00,379.2,WeatherDisplay:10.37,2013-02-14 17:22:00,
2013-02-14 09:25:00,37.1,31.5,30.47,SE,144,4.6,4.6,80,0.00,CLR,,0.00,390.0,WeatherDisplay:10.37,2013-02-14 17:25:00,
2013-02-14 09:26:00,37.5,32.2,30.47,ESE,122,4.6,4.6,81,0.00,CLR,,0.00,392.4,WeatherDisplay:10.37,2013-02-14 17:26:00,
2013-02-14 09:27:00,37.8,32.5,30.47,ESE,116,8.1,8.1,81,0.00,CLR,,0.00,394.8,WeatherDisplay:10.37,2013-02-14 17:27:00,
2013-02-14 09:30:00,38.2,32.3,30.47,SE,131,2.0,8.0,79,0.00,CLR,,0.00,406.8,WeatherDisplay:10.37,2013-02-14 17:30:00,
2013-02-14 09:31:00,38.4,32.5,30.47,SSE,148,3.5,3.5,79,0.00,CLR,,0.00,411.6,WeatherDisplay:10.37,2013-02-14 17:31:00,
2013-02-14 09:32:00,38.4,32.1,30.47,SSE,151,4.6,4.6,78,0.00,CLR,,0.00,414.0,WeatherDisplay:10.37,2013-02-14 17:32:00,
2013-02-14 09:33:00,38.4,32.1,30.47,SE,134,4.6,4.6,78,0.00,CLR,,0.00,415.2,WeatherDisplay:10.37,2013-02-14 17:33:00,
2013-02-14 09:35:00,38.7,32.7,30.47,ESE,119,6.9,6.9,79,0.00,CLR,,0.00,422.4,WeatherDisplay:10.37,2013-02-14 17:35:00,
2013-02-14 09:37:00,39.1,32.8,30.46,ESE,105,5.0,5.0,78,0.00,CLR,,0.00,426.0,WeatherDisplay:10.37,2013-02-14 17:37:00,
2013-02-14 09:39:00,39.5,32.9,30.47,ESE,117,4.6,4.6,77,0.00,CLR,,0.00,430.8,WeatherDisplay:10.37,2013-02-14 17:39:00,
2013-02-14 09:40:00,39.8,33.2,30.47,ESE,109,3.5,3.5,77,0.00,CLR,,0.00,434.4,WeatherDisplay:10.37,2013-02-14 17:40:00,
2013-02-14 09:42:00,40.2,33.2,30.46,ESE,111,2.3,2.3,76,0.00,CLR,,0.00,436.8,WeatherDisplay:10.37,2013-02-14 17:42:00,
2013-02-14 09:43:00,40.3,33.3,30.46,SE,135,2.3,2.3,76,0.00,CLR,,0.00,432.0,WeatherDisplay:10.37,2013-02-14 17:43:00,
2013-02-14 09:44:00,40.3,33.0,30.47,SE,135,4.6,4.6,75,0.00,CLR,,0.00,436.8,WeatherDisplay:10.37,2013-02-14 17:44:00,
2013-02-14 09:46:00,40.6,33.0,30.47,SSE,156,4.6,4.6,74,0.00,CLR,,0.00,440.4,WeatherDisplay:10.37,2013-02-14 17:46:00,
2013-02-14 09:47:00,40.8,33.5,30.47,SE,144,3.5,3.5,75,0.00,CLR,,0.00,447.6,WeatherDisplay:10.37,2013-02-14 17:47:00,
2013-02-14 09:48:00,40.8,33.5,30.47,ESE,111,3.5,3.5,75,0.00,CLR,,0.00,453.6,WeatherDisplay:10.37,2013-02-14 17:48:00,
2013-02-14 09:50:00,41.2,33.5,30.47,SE,125,5.8,5.8,74,0.00,CLR,,0.00,459.6,WeatherDisplay:10.37,2013-02-14 17:50:00,
2013-02-14 09:51:00,41.2,32.9,30.47,SSE,159,3.5,3.5,72,0.00,CLR,,0.00,470.4,WeatherDisplay:10.37,2013-02-14 17:51:00,
2013-02-14 09:52:00,41.2,32.9,30.47,SE,138,4.0,4.0,72,0.00,CLR,,0.00,464.4,WeatherDisplay:10.37,2013-02-14 17:52:00,
2013-02-14 09:53:00,41.2,33.2,30.47,East,96,8.0,8.0,73,0.00,CLR,,0.00,464.4,WeatherDisplay:10.37,2013-02-14 17:53:00,
2013-02-14 09:55:00,41.4,33.0,30.46,ESE,111,6.9,6.9,72,0.00,CLR,,0.00,448.8,WeatherDisplay:10.37,2013-02-14 17:55:00,
2013-02-14 09:56:00,41.6,32.9,30.47,SE,141,4.0,4.0,71,0.00,CLR,,0.00,409.2,WeatherDisplay:10.37,2013-02-14 17:56:00,
2013-02-14 09:58:00,41.7,33.0,30.47,SE,128,4.6,4.6,71,0.00,CLR,,0.00,451.2,WeatherDisplay:10.37,2013-02-14 17:58:00,
2013-02-14 10:00:00,42.1,33.4,30.47,ESE,112,8.1,8.1,71,0.00,CLR,,0.00,495.6,WeatherDisplay:10.37,2013-02-14 18:00:00,
2013-02-14 10:01:00,42.4,33.3,30.47,ESE,109,6.9,6.9,70,0.00,CLR,,0.00,501.6,WeatherDisplay:10.37,2013-02-14 18:01:00,
2013-02-14 10:03:00,42.6,33.5,30.47,SE,134,3.5,3.5,70,0.00,CLR,,0.00,483.6,WeatherDisplay:10.37,2013-02-14 18:03:00,
2013-02-14 10:05:00,42.6,33.1,30.47,ESE,113,6.9,6.9,69,0.00,CLR,,0.00,470.4,WeatherDisplay:10.37,2013-02-14 18:05:00,
2013-02-14 10:06:00,42.9,33.4,30.47,SE,126,4.6,4.6,69,0.00,CLR,,0.00,464.4,WeatherDisplay:10.37,2013-02-14 18:06:00,
2013-02-14 10:08:00,43.0,33.5,30.47,ESE,117,3.5,3.5,69,0.00,CLR,,0.00,468.0,WeatherDisplay:10.37,2013-02-14 18:08:00,
2013-02-14 10:11:00,43.4,33.5,30.47,ESE,107,4.6,4.6,68,0.00,CLR,,0.00,440.4,WeatherDisplay:10.37,2013-02-14 18:11:00,
2013-02-14 10:13:00,43.3,33.1,30.47,ESE,113,5.8,5.8,67,0.00,CLR,,0.00,354.0,WeatherDisplay:10.37,2013-02-14 18:13:00,
2013-02-14 10:16:00,43.3,33.4,30.47,ESE,114,4.6,4.6,68,0.00,CLR,,0.00,414.0,WeatherDisplay:10.37,2013-02-14 18:16:00,
2013-02-14 10:18:00,43.4,33.2,30.47,SE,141,3.5,3.5,67,0.00,CLR,,0.00,426.0,WeatherDisplay:10.37,2013-02-14 18:18:00,
2013-02-14 10:21:00,43.3,33.4,30.46,SE,133,4.0,4.0,68,0.00,CLR,,0.00,498.0,WeatherDisplay:10.37,2013-02-14 18:21:00,
2013-02-14 10:23:00,43.6,33.4,30.46,SSE,165,4.6,4.6,67,0.00,CLR,,0.00,534.0,WeatherDisplay:10.37,2013-02-14 18:23:00,
2013-02-14 10:24:00,43.7,33.5,30.46,ESE,115,3.5,3.5,67,0.00,CLR,,0.00,534.0,WeatherDisplay:10.37,2013-02-14 18:24:00,
2013-02-14 10:26:00,44.4,33.7,30.46,SE,140,4.6,4.6,66,0.00,CLR,,0.00,534.0,WeatherDisplay:10.37,2013-02-14 18:26:00,
2013-02-14 10:27:00,44.4,33.4,30.46,SE,139,4.0,4.0,65,0.00,CLR,,0.00,544.8,WeatherDisplay:10.37,2013-02-14 18:27:00,
2013-02-14 10:28:00,44.5,33.5,30.47,ESE,111,3.5,3.5,65,0.00,CLR,,0.00,550.8,WeatherDisplay:10.37,2013-02-14 18:28:00,
2013-02-14 10:29:00,44.9,33.8,30.47,ESE,106,4.6,4.6,65,0.00,CLR,,0.00,553.2,WeatherDisplay:10.37,2013-02-14 18:29:00,
2013-02-14 10:32:00,45.4,33.9,30.46,ESE,106,0.0,0.9,64,0.00,CLR,,0.00,554.4,WeatherDisplay:10.37,2013-02-14 18:32:00,
2013-02-14 10:33:00,45.8,33.9,30.47,East,93,3.5,3.5,63,0.00,CLR,,0.00,550.8,WeatherDisplay:10.37,2013-02-14 18:33:00,
2013-02-14 10:34:00,46.4,34.5,30.47,ESE,115,5.8,5.8,63,0.00,CLR,,0.00,546.0,WeatherDisplay:10.37,2013-02-14 18:34:00,
2013-02-14 10:37:00,46.6,33.9,30.47,East,93,3.5,3.5,61,0.00,CLR,,0.00,534.0,WeatherDisplay:10.37,2013-02-14 18:37:00,
2013-02-14 10:38:00,46.6,33.9,30.47,ESE,118,3.5,3.5,61,0.00,CLR,,0.00,548.4,WeatherDisplay:10.37,2013-02-14 18:38:00,
2013-02-14 10:39:00,46.7,34.0,30.47,ESE,109,3.5,3.5,61,0.00,CLR,,0.00,561.6,WeatherDisplay:10.37,2013-02-14 18:39:00,
2013-02-14 10:42:00,47.1,34.3,30.47,ESE,114,3.5,3.5,61,0.00,CLR,,0.00,573.6,WeatherDisplay:10.37,2013-02-14 18:42:00,
2013-02-14 10:43:00,47.1,34.3,30.47,ESE,116,3.5,3.5,61,0.00,CLR,,0.00,573.6,WeatherDisplay:10.37,2013-02-14 18:43:00,
2013-02-14 10:44:00,47.3,34.1,30.47,SE,129,4.0,4.0,60,0.00,CLR,,0.00,578.4,WeatherDisplay:10.37,2013-02-14 18:44:00,
2013-02-14 10:48:00,47.4,33.8,30.46,ESE,105,3.5,3.5,59,0.00,CLR,,0.00,584.4,WeatherDisplay:10.37,2013-02-14 18:48:00,
2013-02-14 10:49:00,47.3,33.7,30.46,ESE,120,3.5,3.5,59,0.00,CLR,,0.00,586.8,WeatherDisplay:10.37,2013-02-14 18:49:00,
2013-02-14 10:53:00,48.3,34.2,30.47,East,99,6.9,6.9,58,0.00,CLR,,0.00,604.8,WeatherDisplay:10.37,2013-02-14 18:53:00,
2013-02-14 10:54:00,48.4,34.3,30.47,ESE,108,6.9,6.9,58,0.00,CLR,,0.00,609.6,WeatherDisplay:10.37,2013-02-14 18:54:00,
2013-02-14 10:55:00,48.6,34.5,30.47,ESE,116,3.5,3.5,58,0.00,CLR,,0.00,614.4,WeatherDisplay:10.37,2013-02-14 18:55:00,
2013-02-14 10:58:00,47.9,33.8,30.46,East,88,3.5,0.0,58,0.00,CLR,,0.00,615.6,WeatherDisplay:10.37,2013-02-14 18:58:00,
2013-02-14 10:59:00,47.9,33.8,30.46,East,88,3.5,0.0,58,0.00,CLR,,0.00,615.6,WeatherDisplay:10.37,2013-02-14 18:59:00,
2013-02-14 11:00:00,48.1,34.4,30.46,East,96,6.9,6.9,59,0.00,CLR,,0.00,604.8,WeatherDisplay:10.37,2013-02-14 19:00:00,
2013-02-14 11:04:00,48.9,34.3,30.46,East,100,6.9,6.9,57,0.00,CLR,,0.00,537.6,WeatherDisplay:10.37,2013-02-14 19:04:00,
2013-02-14 11:05:00,48.8,33.8,30.46,ESE,115,5.8,5.8,56,0.00,CLR,,0.00,492.0,WeatherDisplay:10.37,2013-02-14 19:05:00,
2013-02-14 11:09:00,48.1,33.6,30.46,NE,49,3.5,3.5,57,0.00,CLR,,0.00,542.4,WeatherDisplay:10.37,2013-02-14 19:09:00,
2013-02-14 11:10:00,47.6,33.1,30.46,East,89,7.0,7.0,57,0.00,CLR,,0.00,573.6,WeatherDisplay:10.37,2013-02-14 19:10:00,
2013-02-14 11:14:00,48.2,33.7,30.46,SE,128,4.6,4.6,57,0.00,CLR,,0.00,556.8,WeatherDisplay:10.37,2013-02-14 19:14:00,
2013-02-14 11:15:00,48.6,33.6,30.46,SE,128,1.1,1.1,56,0.00,CLR,,0.00,565.2,WeatherDisplay:10.37,2013-02-14 19:15:00,
2013-02-14 11:16:00,48.6,33.6,30.46,SE,128,1.1,0.0,56,0.00,CLR,,0.00,565.2,WeatherDisplay:10.37,2013-02-14 19:16:00,
2013-02-14 11:19:00,48.3,33.3,30.46,SE,137,2.3,2.3,56,0.00,CLR,,0.00,607.2,WeatherDisplay:10.37,2013-02-14 19:19:00,
2013-02-14 11:20:00,48.2,33.2,30.46,SE,124,2.3,2.3,56,0.00,CLR,,0.00,634.8,WeatherDisplay:10.37,2013-02-14 19:20:00,
2013-02-14 11:21:00,48.5,33.9,30.46,ESE,107,2.3,2.3,57,0.00,CLR,,0.00,634.8,WeatherDisplay:10.37,2013-02-14 19:21:00,
2013-02-14 11:24:00,49.0,34.4,30.46,SE,136,6.9,6.9,57,0.00,CLR,,0.00,634.8,WeatherDisplay:10.37,2013-02-14 19:24:00,
2013-02-14 11:25:00,49.3,33.8,30.46,SE,128,2.3,2.3,55,0.00,CLR,,0.00,639.6,WeatherDisplay:10.37,2013-02-14 19:25:00,
2013-02-14 11:26:00,49.2,33.3,30.46,SE,138,3.5,3.5,54,0.00,CLR,,0.00,634.8,WeatherDisplay:10.37,2013-02-14 19:26:00,
2013-02-14 11:29:00,48.8,33.8,30.46,ESE,115,2.0,2.0,56,0.00,CLR,,0.00,626.4,WeatherDisplay:10.37,2013-02-14 19:29:00,
2013-02-14 11:30:00,48.8,33.8,30.46,ESE,107,1.1,1.1,56,0.00,CLR,,0.00,620.4,WeatherDisplay:10.37,2013-02-14 19:30:00,
2013-02-14 11:31:00,49.1,34.1,30.46,ESE,104,2.3,2.3,56,0.00,CLR,,0.00,631.2,WeatherDisplay:10.37,2013-02-14 19:31:00,
2013-02-14 11:34:00,51.1,35.0,30.46,East,85,5.0,5.0,54,0.00,CLR,,0.00,637.2,WeatherDisplay:10.37,2013-02-14 19:34:00,
2013-02-14 11:35:00,51.5,34.4,30.46,East,94,6.9,6.9,52,0.00,CLR,,0.00,637.2,WeatherDisplay:10.37,2013-02-14 19:35:00,
2013-02-14 11:36:00,51.8,34.2,30.46,ESE,103,3.5,3.5,51,0.00,CLR,,0.00,639.6,WeatherDisplay:10.37,2013-02-14 19:36:00,
2013-02-14 11:39:00,51.9,34.3,30.45,SE,146,3.5,3.5,51,0.00,CLR,,0.00,640.8,WeatherDisplay:10.37,2013-02-14 19:39:00,
2013-02-14 11:40:00,51.2,33.7,30.45,SE,126,6.9,6.9,51,0.00,CLR,,0.00,639.6,WeatherDisplay:10.37,2013-02-14 19:40:00,
2013-02-14 11:41:00,51.4,33.9,30.45,East,89,8.0,8.0,51,0.00,CLR,,0.00,643.2,WeatherDisplay:10.37,2013-02-14 19:41:00,
2013-02-14 11:42:00,51.5,34.0,30.45,ESE,110,8.1,8.1,51,0.00,CLR,,0.00,643.2,WeatherDisplay:10.37,2013-02-14 19:42:00,
2013-02-14 11:44:00,51.4,33.9,30.45,East,100,8.1,8.1,51,0.00,CLR,,0.00,640.8,WeatherDisplay:10.37,2013-02-14 19:44:00,
2013-02-14 11:45:00,51.4,33.9,30.45,ESE,110,8.1,8.1,51,0.00,CLR,,0.00,643.2,WeatherDisplay:10.37,2013-02-14 19:45:00,
2013-02-14 11:46:00,51.4,33.9,30.45,ESE,115,8.1,8.1,51,0.00,CLR,,0.00,645.6,WeatherDisplay:10.37,2013-02-14 19:46:00,
2013-02-14 11:47:00,51.5,34.0,30.45,ESE,110,3.5,3.5,51,0.00,CLR,,0.00,645.6,WeatherDisplay:10.37,2013-02-14 19:47:00,
2013-02-14 11:49:00,51.9,34.3,30.45,ESE,113,5.0,5.0,51,0.00,CLR,,0.00,645.6,WeatherDisplay:10.37,2013-02-14 19:49:00,
2013-02-14 11:51:00,52.5,34.4,30.45,ESE,102,5.8,5.8,50,0.00,CLR,,0.00,645.6,WeatherDisplay:10.37,2013-02-14 19:51:00,
2013-02-14 11:53:00,52.4,33.8,30.45,ESE,106,4.6,4.6,49,0.00,CLR,,0.00,648.0,WeatherDisplay:10.37,2013-02-14 19:53:00,
2013-02-14 11:54:00,52.7,34.1,30.45,SE,124,3.5,3.5,49,0.00,CLR,,0.00,649.2,WeatherDisplay:10.37,2013-02-14 19:54:00,
2013-02-14 11:56:00,52.9,34.2,30.45,ESE,119,2.3,2.3,49,0.00,CLR,,0.00,651.6,WeatherDisplay:10.37,2013-02-14 19:56:00,
2013-02-14 11:58:00,53.2,34.5,30.45,East,100,4.6,4.6,49,0.00,CLR,,0.00,649.2,WeatherDisplay:10.37,2013-02-14 19:58:00,
2013-02-14 11:59:00,53.7,35.0,30.45,SE,126,4.6,4.6,49,0.00,CLR,,0.00,651.6,WeatherDisplay:10.37,2013-02-14 19:59:00,
2013-02-14 12:01:00,53.9,34.6,30.45,SE,127,3.5,3.5,48,0.00,CLR,,0.00,654.0,WeatherDisplay:10.37,2013-02-14 20:01:00,
2013-02-14 12:03:00,53.9,34.1,30.45,East,89,8.0,8.0,47,0.00,CLR,,0.00,656.4,WeatherDisplay:10.37,2013-02-14 20:03:00,
2013-02-14 12:05:00,54.3,34.5,30.45,ESE,116,9.2,9.2,47,0.00,CLR,,0.00,656.4,WeatherDisplay:10.37,2013-02-14 20:05:00,
2013-02-14 12:06:00,53.9,33.6,30.45,ESE,115,5.8,5.8,46,0.00,CLR,,0.00,654.0,WeatherDisplay:10.37,2013-02-14 20:06:00,
2013-02-14 12:08:00,52.8,33.1,30.46,NNE,24,6.0,6.0,47,0.00,CLR,,0.00,654.0,WeatherDisplay:10.37,2013-02-14 20:08:00,
2013-02-14 12:10:00,52.4,33.8,30.45,ESE,104,5.0,8.0,49,0.00,CLR,,0.00,656.4,WeatherDisplay:10.37,2013-02-14 20:10:00,
2013-02-14 12:12:00,52.6,34.0,30.45,NE,38,3.5,3.5,49,0.00,CLR,,0.00,654.0,WeatherDisplay:10.37,2013-02-14 20:12:00,
2013-02-14 12:13:00,52.6,34.0,30.45,ESE,120,4.6,4.6,49,0.00,CLR,,0.00,654.0,WeatherDisplay:10.37,2013-02-14 20:13:00,
2013-02-14 12:15:00,52.6,34.5,30.45,East,83,1.0,5.0,50,0.00,CLR,,0.00,656.4,WeatherDisplay:10.37,2013-02-14 20:15:00,
2013-02-14 12:17:00,52.8,35.2,30.45,ESE,107,7.0,7.0,51,0.00,CLR,,0.00,657.6,WeatherDisplay:10.37,2013-02-14 20:17:00,
2013-02-14 12:18:00,53.6,35.4,30.45,East,91,6.9,6.9,50,0.00,CLR,,0.00,657.6,WeatherDisplay:10.37,2013-02-14 20:18:00,
2013-02-14 12:21:00,53.8,34.6,30.46,East,84,6.9,6.9,48,0.00,CLR,,0.00,660.0,WeatherDisplay:10.37,2013-02-14 20:21:00,
2013-02-14 12:22:00,53.2,34.0,30.45,ENE,78,4.6,4.6,48,0.00,CLR,,0.00,664.8,WeatherDisplay:10.37,2013-02-14 20:22:00,
2013-02-14 12:23:00,53.0,34.3,30.45,ESE,118,5.8,5.8,49,0.00,CLR,,0.00,668.4,WeatherDisplay:10.37,2013-02-14 20:23:00,
2013-02-14 12:26:00,53.2,34.5,30.45,East,98,2.3,2.3,49,0.00,CLR,,0.00,675.6,WeatherDisplay:10.37,2013-02-14 20:26:00,
2013-02-14 12:27:00,53.2,35.0,30.45,NE,56,3.0,3.0,50,0.00,CLR,,0.00,676.8,WeatherDisplay:10.37,2013-02-14 20:27:00,
2013-02-14 12:28:00,53.3,34.6,30.45,NNE,24,4.0,4.0,49,0.00,CLR,,0.00,685.2,WeatherDisplay:10.37,2013-02-14 20:28:00,
2013-02-14 12:32:00,53.0,34.3,30.45,ENE,65,2.3,2.3,49,0.00,CLR,,0.00,706.8,WeatherDisplay:10.37,2013-02-14 20:32:00,
2013-02-14 12:35:00,52.8,34.2,30.45,North,350,3.5,3.5,49,0.00,CLR,,0.00,706.8,WeatherDisplay:10.37,2013-02-14 20:35:00,
2013-02-14 12:37:00,53.1,34.4,30.45,NW,320,4.0,4.0,49,0.00,CLR,,0.00,700.8,WeatherDisplay:10.37,2013-02-14 20:37:00,
2013-02-14 12:38:00,52.7,34.1,30.45,NNW,331,3.5,3.5,49,0.00,CLR,,0.00,698.4,WeatherDisplay:10.37,2013-02-14 20:38:00,
2013-02-14 12:40:00,52.6,34.5,30.44,NE,54,3.0,3.0,50,0.00,CLR,,0.00,718.8,WeatherDisplay:10.37,2013-02-14 20:40:00,
2013-02-14 12:42:00,53.6,35.4,30.44,ENE,63,2.3,2.3,50,0.00,CLR,,0.00,787.2,WeatherDisplay:10.37,2013-02-14 20:42:00,
2013-02-14 12:43:00,54.6,35.8,30.44,ESE,114,4.0,4.0,49,0.00,CLR,,0.00,805.2,WeatherDisplay:10.37,2013-02-14 20:43:00,
2013-02-14 12:45:00,56.3,34.6,30.44,NNW,346,2.3,2.3,44,0.00,CLR,,0.00,810.0,WeatherDisplay:10.37,2013-02-14 20:45:00,
2013-02-14 12:47:00,55.2,34.2,30.44,North,350,5.0,5.0,45,0.00,CLR,,0.00,478.8,WeatherDisplay:10.37,2013-02-14 20:47:00,
2013-02-14 12:48:00,54.4,34.0,30.44,NNW,331,5.8,5.8,46,0.00,CLR,,0.00,465.6,WeatherDisplay:10.37,2013-02-14 20:48:00,
2013-02-14 12:50:00,52.3,33.7,30.44,NNW,327,4.6,4.6,49,0.00,CLR,,0.00,561.6,WeatherDisplay:10.37,2013-02-14 20:50:00,
2013-02-14 12:53:00,51.5,34.0,30.44,NW,325,3.5,3.5,51,0.00,CLR,,0.00,609.6,WeatherDisplay:10.37,2013-02-14 20:53:00,
2013-02-14 12:54:00,51.7,34.1,30.44,NNW,336,4.0,4.0,51,0.00,CLR,,0.00,592.8,WeatherDisplay:10.37,2013-02-14 20:54:00,
2013-02-14 12:55:00,51.8,34.2,30.44,NW,325,3.5,3.5,51,0.00,CLR,,0.00,531.6,WeatherDisplay:10.37,2013-02-14 20:55:00,
2013-02-14 12:58:00,52.1,34.5,30.44,ENE,76,2.3,2.3,51,0.00,CLR,,0.00,520.8,WeatherDisplay:10.37,2013-02-14 20:58:00,
2013-02-14 12:59:00,52.4,34.8,30.44,NNE,13,4.0,4.0,51,0.00,CLR,,0.00,472.8,WeatherDisplay:10.37,2013-02-14 20:59:00,
2013-02-14 13:00:00,52.6,34.5,30.44,NE,52,6.0,6.0,50,0.00,CLR,,0.00,428.4,WeatherDisplay:10.37,2013-02-14 21:00:00,
2013-02-14 13:03:00,52.4,34.3,30.44,ENE,75,5.0,5.0,50,0.00,CLR,,0.00,492.0,WeatherDisplay:10.37,2013-02-14 21:03:00,
2013-02-14 13:04:00,52.3,34.2,30.44,NE,44,6.9,6.9,50,0.00,CLR,,0.00,457.2,WeatherDisplay:10.37,2013-02-14 21:04:00,
2013-02-14 13:06:00,52.4,34.3,30.44,ENE,61,3.5,3.5,50,0.00,CLR,,0.00,526.8,WeatherDisplay:10.37,2013-02-14 21:06:00,
2013-02-14 13:08:00,52.9,34.2,30.44,North,355,4.6,4.6,49,0.00,CLR,,0.00,571.2,WeatherDisplay:10.37,2013-02-14 21:08:00,
2013-02-14 13:09:00,52.5,33.9,30.43,North,9,3.5,3.5,49,0.00,CLR,,0.00,544.8,WeatherDisplay:10.37,2013-02-14 21:09:00,
2013-02-14 13:10:00,52.1,34.0,30.44,North,5,3.5,3.5,50,0.00,CLR,,0.00,531.6,WeatherDisplay:10.37,2013-02-14 21:10:00,
2013-02-14 13:11:00,51.9,33.8,30.44,North,5,3.5,3.5,50,0.00,CLR,,0.00,531.6,WeatherDisplay:10.37,2013-02-14 21:11:00,
2013-02-14 13:13:00,52.4,34.8,30.44,NW,318,3.5,3.5,51,0.00,CLR,,0.00,890.4,WeatherDisplay:10.37,2013-02-14 21:13:00,
2013-02-14 13:14:00,52.7,34.6,30.44,NW,306,3.5,3.5,50,0.00,CLR,,0.00,890.4,WeatherDisplay:10.37,2013-02-14 21:14:00,
2013-02-14 13:16:00,52.9,35.2,30.44,NE,42,3.5,3.5,51,0.00,CLR,,0.00,860.4,WeatherDisplay:10.37,2013-02-14 21:16:00,
2013-02-14 13:19:00,54.1,34.8,30.44,NNW,340,5.8,5.8,48,0.00,CLR,,0.00,495.6,WeatherDisplay:10.37,2013-02-14 21:19:00,
2013-02-14 13:20:00,53.7,34.5,30.44,NNW,337,5.8,5.8,48,0.00,CLR,,0.00,373.2,WeatherDisplay:10.37,2013-02-14 21:20:00,
2013-02-14 13:21:00,52.7,34.1,30.43,NNE,21,3.5,3.5,49,0.00,CLR,,0.00,820.8,WeatherDisplay:10.37,2013-02-14 21:21:00,
2013-02-14 13:22:00,52.7,34.1,30.43,NNE,21,3.5,3.5,49,0.00,CLR,,0.00,820.8,WeatherDisplay:10.37,2013-02-14 21:22:00,
2013-02-14 13:25:00,53.3,35.6,30.43,North,355,2.3,0.0,51,0.00,CLR,,0.00,765.6,WeatherDisplay:10.37,2013-02-14 21:25:00,
2013-02-14 13:27:00,55.2,35.8,30.43,NNE,24,3.5,3.5,48,0.00,CLR,,0.00,702.0,WeatherDisplay:10.37,2013-02-14 21:27:00,
2013-02-14 13:28:00,55.5,35.6,30.43,NNE,24,3.5,3.5,47,0.00,CLR,,0.00,740.4,WeatherDisplay:10.37,2013-02-14 21:28:00,
2013-02-14 13:30:00,56.0,34.9,30.43,NNW,333,4.0,4.0,45,0.00,CLR,,0.00,740.4,WeatherDisplay:10.37,2013-02-14 21:30:00,
2013-02-14 13:32:00,55.0,34.0,30.43,NW,313,5.0,5.0,45,0.00,CLR,,0.00,648.0,WeatherDisplay:10.37,2013-02-14 21:32:00,
2013-02-14 13:33:00,54.4,34.0,30.43,NW,321,4.6,4.6,46,0.00,CLR,,0.00,648.0,WeatherDisplay:10.37,2013-02-14 21:33:00,
2013-02-14 13:35:00,53.6,34.4,30.43,NW,313,3.5,3.5,48,0.00,CLR,,0.00,280.8,WeatherDisplay:10.37,2013-02-14 21:35:00,
2013-02-14 13:37:00,53.5,34.8,30.43,NE,53,2.3,2.3,49,0.00,CLR,,0.00,651.6,WeatherDisplay:10.37,2013-02-14 21:37:00,
2013-02-14 13:38:00,54.4,35.6,30.43,North,5,3.5,3.5,49,0.00,CLR,,0.00,656.4,WeatherDisplay:10.37,2013-02-14 21:38:00,
2013-02-14 13:40:00,55.1,35.2,30.43,North,11,4.6,4.6,47,0.00,CLR,,0.00,654.0,WeatherDisplay:10.37,2013-02-14 21:40:00,
2013-02-14 13:42:00,54.3,34.5,30.43,NW,317,4.6,4.6,47,0.00,CLR,,0.00,649.2,WeatherDisplay:10.37,2013-02-14 21:42:00,
2013-02-14 13:43:00,53.7,33.9,30.43,NW,306,4.6,4.6,47,0.00,CLR,,0.00,620.4,WeatherDisplay:10.37,2013-02-14 21:43:00,
2013-02-14 13:45:00,53.3,34.6,30.43,NNW,346,5.8,5.8,49,0.00,CLR,,0.00,567.6,WeatherDisplay:10.37,2013-02-14 21:45:00,
2013-02-14 13:47:00,52.6,34.0,30.43,NNW,344,3.5,3.5,49,0.00,CLR,,0.00,624.0,WeatherDisplay:10.37,2013-02-14 21:47:00,
2013-02-14 13:48:00,53.3,35.1,30.43,North,360,2.3,2.3,50,0.00,CLR,,0.00,620.4,WeatherDisplay:10.37,2013-02-14 21:48:00,
2013-02-14 13:50:00,55.2,36.4,30.43,East,93,4.6,4.6,49,0.00,CLR,,0.00,598.8,WeatherDisplay:10.37,2013-02-14 21:50:00,
2013-02-14 13:51:00,56.0,36.0,30.43,East,98,4.6,4.6,47,0.00,CLR,,0.00,598.8,WeatherDisplay:10.37,2013-02-14 21:51:00,
2013-02-14 13:52:00,57.1,35.4,30.42,East,101,2.3,2.3,44,0.00,CLR,,0.00,584.4,WeatherDisplay:10.37,2013-02-14 21:52:00,
2013-02-14 13:53:00,57.6,35.2,30.42,ENE,74,4.6,4.6,43,0.00,CLR,,0.00,582.0,WeatherDisplay:10.37,2013-02-14 21:53:00,
2013-02-14 13:55:00,58.1,35.7,30.42,NE,46,4.0,4.0,43,0.00,CLR,,0.00,579.6,WeatherDisplay:10.37,2013-02-14 21:55:00,
2013-02-14 13:56:00,57.9,34.9,30.42,ENE,60,4.6,4.6,42,0.00,CLR,,0.00,576.0,WeatherDisplay:10.37,2013-02-14 21:56:00,
2013-02-14 13:57:00,57.1,34.8,30.42,NE,43,3.5,3.5,43,0.00,CLR,,0.00,582.0,WeatherDisplay:10.37,2013-02-14 21:57:00,
2013-02-14 13:58:00,56.1,33.9,30.42,NE,38,3.5,3.5,43,0.00,CLR,,0.00,578.4,WeatherDisplay:10.37,2013-02-14 21:58:00,
2013-02-14 14:00:00,57.2,36.0,30.42,East,82,2.3,2.3,45,0.00,CLR,,0.00,571.2,WeatherDisplay:10.37,2013-02-14 22:00:00,
2013-02-14 14:01:00,58.1,36.3,30.42,East,82,2.3,2.3,44,0.00,CLR,,0.00,556.8,WeatherDisplay:10.37,2013-02-14 22:01:00,
2013-02-14 14:02:00,58.4,35.4,30.42,East,82,0.0,0.0,42,0.00,CLR,,0.00,554.4,WeatherDisplay:10.37,2013-02-14 22:02:00,
2013-02-14 14:04:00,58.3,34.7,30.42,East,82,1.1,0.0,41,0.00,CLR,,0.00,556.8,WeatherDisplay:10.37,2013-02-14 22:04:00,
2013-02-14 14:05:00,57.3,33.8,30.42,NE,49,2.3,2.3,41,0.00,CLR,,0.00,554.4,WeatherDisplay:10.37,2013-02-14 22:05:00,
2013-02-14 14:06:00,56.6,34.3,30.42,NE,49,1.1,1.1,43,0.00,CLR,,0.00,561.6,WeatherDisplay:10.37,2013-02-14 22:06:00,
2013-02-14 14:07:00,56.4,34.7,30.42,NE,50,1.1,1.1,44,0.00,CLR,,0.00,546.0,WeatherDisplay:10.37,2013-02-14 22:07:00,
2013-02-14 14:09:00,56.6,34.9,30.42,NNE,22,2.0,2.0,44,0.00,CLR,,0.00,537.6,WeatherDisplay:10.37,2013-02-14 22:09:00,
2013-02-14 14:11:00,55.5,33.9,30.42,NW,304,4.0,4.0,44,0.00,CLR,,0.00,537.6,WeatherDisplay:10.37,2013-02-14 22:11:00,
2013-02-14 14:12:00,54.7,34.3,30.42,WNW,300,3.5,3.5,46,0.00,CLR,,0.00,542.4,WeatherDisplay:10.37,2013-02-14 22:12:00,
2013-02-14 14:14:00,54.4,34.0,30.42,WNW,302,3.5,3.5,46,0.00,CLR,,0.00,529.2,WeatherDisplay:10.37,2013-02-14 22:14:00,
2013-02-14 14:16:00,53.3,33.6,30.42,North,355,4.6,4.6,47,0.00,CLR,,0.00,540.0,WeatherDisplay:10.37,2013-02-14 22:16:00,
2013-02-14 14:18:00,52.8,33.6,30.42,ENE,76,4.6,4.6,48,0.00,CLR,,0.00,520.8,WeatherDisplay:10.37,2013-02-14 22:18:00,
2013-02-14 14:19:00,53.8,35.1,30.42,East,80,3.5,3.5,49,0.00,CLR,,0.00,525.6,WeatherDisplay:10.37,2013-02-14 22:19:00,
2013-02-14 14:22:00,56.3,35.2,30.42,East,84,2.3,2.3,45,0.00,CLR,,0.00,501.6,WeatherDisplay:10.37,2013-02-14 22:22:00,
2013-02-14 14:23:00,56.7,35.0,30.42,ESE,113,2.3,2.3,44,0.00,CLR,,0.00,495.6,WeatherDisplay:10.37,2013-02-14 22:23:00,
2013-02-14 14:24:00,57.5,35.2,30.42,ESE,113,1.1,1.1,43,0.00,CLR,,0.00,504.0,WeatherDisplay:10.37,2013-02-14 22:24:00,
2013-02-14 14:27:00,58.1,35.1,30.41,ESE,108,2.3,0.0,42,0.00,CLR,,0.00,487.2,WeatherDisplay:10.37,2013-02-14 22:27:00,
2013-02-14 14:28:00,58.6,35.6,30.42,ESE,108,1.1,0.0,42,0.00,CLR,,0.00,489.6,WeatherDisplay:10.37,2013-02-14 22:28:00,
2013-02-14 14:29:00,58.7,34.4,30.42,NE,51,2.3,2.3,40,0.00,CLR,,0.00,484.8,WeatherDisplay:10.37,2013-02-14 22:29:00,
2013-02-14 14:32:00,58.9,34.6,30.42,East,88,1.1,1.1,40,0.00,CLR,,0.00,487.2,WeatherDisplay:10.37,2013-02-14 22:32:00,
2013-02-14 14:33:00,59.4,35.1,30.42,East,88,2.3,2.3,40,0.00,CLR,,0.00,483.6,WeatherDisplay:10.37,2013-02-14 22:33:00,
2013-02-14 14:35:00,59.1,34.1,30.41,North,10,3.5,3.5,39,0.00,CLR,,0.00,489.6,WeatherDisplay:10.37,2013-02-14 22:35:00,
2013-02-14 14:37:00,57.9,34.9,30.41,North,10,0.0,0.0,42,0.00,CLR,,0.00,476.4,WeatherDisplay:10.37,2013-02-14 22:37:00,
2013-02-14 14:38:00,57.7,34.7,30.42,North,360,2.0,2.0,42,0.00,CLR,,0.00,487.2,WeatherDisplay:10.37,2013-02-14 22:38:00,
2013-02-14 14:40:00,57.5,34.6,30.41,ESE,115,3.5,3.5,42,0.00,CLR,,0.00,478.8,WeatherDisplay:10.37,2013-02-14 22:40:00,
2013-02-14 14:42:00,58.7,34.4,30.41,ENE,71,4.6,4.6,40,0.00,CLR,,0.00,487.2,WeatherDisplay:10.37,2013-02-14 22:42:00,
2013-02-14 14:43:00,58.7,34.4,30.41,ENE,71,4.6,4.6,40,0.00,CLR,,0.00,489.6,WeatherDisplay:10.37,2013-02-14 22:43:00,
2013-02-14 14:45:00,59.2,34.9,30.41,East,92,4.6,4.6,40,0.00,CLR,,0.00,481.2,WeatherDisplay:10.37,2013-02-14 22:45:00,
2013-02-14 14:47:00,59.3,34.3,30.41,East,93,2.3,2.3,39,0.00,CLR,,0.00,468.0,WeatherDisplay:10.37,2013-02-14 22:47:00,
2013-02-14 14:48:00,59.2,34.2,30.41,East,93,2.3,2.3,39,0.00,CLR,,0.00,459.6,WeatherDisplay:10.37,2013-02-14 22:48:00,
2013-02-14 14:50:00,59.9,34.9,30.41,East,93,3.5,3.5,39,0.00,CLR,,0.00,442.8,WeatherDisplay:10.37,2013-02-14 22:50:00,
2013-02-14 14:53:00,61.0,35.2,30.41,East,93,1.1,1.1,38,0.00,CLR,,0.00,456.0,WeatherDisplay:10.37,2013-02-14 22:53:00,
2013-02-14 14:55:00,59.1,33.5,30.41,NNW,348,5.8,5.8,38,0.00,CLR,,0.00,434.4,WeatherDisplay:10.37,2013-02-14 22:55:00,
2013-02-14 14:58:00,56.4,33.0,30.41,North,5,3.5,3.5,41,0.00,CLR,,0.00,428.4,WeatherDisplay:10.37,2013-02-14 22:58:00,
2013-02-14 15:01:00,56.2,34.6,30.40,North,5,3.0,3.0,44,0.00,CLR,,0.00,426.0,WeatherDisplay:10.37,2013-02-14 23:01:00,
2013-02-14 15:03:00,55.8,34.2,30.40,North,5,3.5,3.5,44,0.00,CLR,,0.00,417.6,WeatherDisplay:10.37,2013-02-14 23:03:00,
2013-02-14 15:04:00,56.0,34.4,30.40,North,5,2.3,2.3,44,0.00,CLR,,0.00,411.6,WeatherDisplay:10.37,2013-02-14 23:04:00,
2013-02-14 15:06:00,55.7,33.5,30.41,North,355,2.3,2.3,43,0.00,CLR,,0.00,400.8,WeatherDisplay:10.37,2013-02-14 23:06:00,
2013-02-14 15:08:00,56.2,34.6,30.40,North,355,1.1,1.1,44,0.00,CLR,,0.00,409.2,WeatherDisplay:10.37,2013-02-14 23:08:00,
2013-02-14 15:09:00,56.7,34.4,30.40,North,355,1.1,1.1,43,0.00,CLR,,0.00,409.2,WeatherDisplay:10.37,2013-02-14 23:09:00,
2013-02-14 15:11:00,56.9,34.0,30.40,North,355,0.0,0.0,42,0.00,CLR,,0.00,403.2,WeatherDisplay:10.37,2013-02-14 23:11:00,
2013-02-14 15:13:00,57.9,35.5,30.41,North,355,0.0,0.0,43,0.00,CLR,,0.00,409.2,WeatherDisplay:10.37,2013-02-14 23:13:00,
2013-02-14 15:14:00,58.5,34.9,30.41,North,355,0.0,0.0,41,0.00,CLR,,0.00,409.2,WeatherDisplay:10.37,2013-02-14 23:14:00,
2013-02-14 15:16:00,58.0,33.8,30.40,North,355,2.3,2.3,40,0.00,CLR,,0.00,375.6,WeatherDisplay:10.37,2013-02-14 23:16:00,
2013-02-14 15:18:00,57.1,33.6,30.40,North,355,3.5,3.5,41,0.00,CLR,,0.00,384.0,WeatherDisplay:10.37,2013-02-14 23:18:00,
2013-02-14 15:19:00,56.7,33.8,30.40,North,355,1.1,1.1,42,0.00,CLR,,0.00,384.0,WeatherDisplay:10.37,2013-02-14 23:19:00,
2013-02-14 15:21:00,56.6,34.3,30.41,North,355,2.3,2.3,43,0.00,CLR,,0.00,375.6,WeatherDisplay:10.37,2013-02-14 23:21:00,
2013-02-14 15:24:00,57.3,34.4,30.41,North,355,2.3,2.3,42,0.00,CLR,,0.00,362.4,WeatherDisplay:10.37,2013-02-14 23:24:00,
2013-02-14 15:25:00,56.8,33.9,30.41,North,355,2.3,2.3,42,0.00,CLR,,0.00,361.2,WeatherDisplay:10.37,2013-02-14 23:25:00,
2013-02-14 15:26:00,56.3,34.1,30.40,North,5,3.5,3.5,43,0.00,CLR,,0.00,358.8,WeatherDisplay:10.37,2013-02-14 23:26:00,
2013-02-14 15:29:00,55.9,34.3,30.41,NNW,346,3.5,3.5,44,0.00,CLR,,0.00,348.0,WeatherDisplay:10.37,2013-02-14 23:29:00,
2013-02-14 15:30:00,55.6,34.0,30.41,NNW,344,3.5,3.5,44,0.00,CLR,,0.00,345.6,WeatherDisplay:10.37,2013-02-14 23:30:00,
2013-02-14 15:31:00,55.4,34.4,30.40,NNW,348,3.5,3.5,45,0.00,CLR,,0.00,339.6,WeatherDisplay:10.37,2013-02-14 23:31:00,
2013-02-14 15:34:00,54.6,33.7,30.40,North,355,4.6,4.6,45,0.00,CLR,,0.00,358.8,WeatherDisplay:10.37,2013-02-14 23:34:00,
2013-02-14 15:35:00,54.6,34.2,30.41,North,355,3.5,3.5,46,0.00,CLR,,0.00,348.0,WeatherDisplay:10.37,2013-02-14 23:35:00,
2013-02-14 15:36:00,55.0,34.0,30.41,North,355,1.1,1.1,45,0.00,CLR,,0.00,345.6,WeatherDisplay:10.37,2013-02-14 23:36:00,
2013-02-14 15:39:00,55.1,34.1,30.41,North,355,2.3,2.3,45,0.00,CLR,,0.00,339.6,WeatherDisplay:10.37,2013-02-14 23:39:00,
2013-02-14 15:40:00,55.6,34.6,30.41,NNW,336,3.5,3.5,45,0.00,CLR,,0.00,333.6,WeatherDisplay:10.37,2013-02-14 23:40:00,
2013-02-14 15:41:00,55.3,34.3,30.41,NW,321,4.6,4.6,45,0.00,CLR,,0.00,333.6,WeatherDisplay:10.37,2013-02-14 23:41:00,
2013-02-14 15:44:00,55.2,33.6,30.41,North,355,4.6,4.6,44,0.00,CLR,,0.00,314.4,WeatherDisplay:10.37,2013-02-14 23:44:00,
2013-02-14 15:45:00,55.1,33.6,30.41,North,355,4.6,4.6,44,0.00,CLR,,0.00,312.0,WeatherDisplay:10.37,2013-02-14 23:45:00,
2013-02-14 15:46:00,55.1,34.1,30.41,North,5,5.0,5.0,45,0.00,CLR,,0.00,309.6,WeatherDisplay:10.37,2013-02-14 23:46:00,
2013-02-14 15:49:00,55.0,34.6,30.41,North,5,2.0,2.0,46,0.00,CLR,,0.00,297.6,WeatherDisplay:10.37,2013-02-14 23:49:00,
2013-02-14 15:50:00,55.1,34.1,30.41,North,5,2.3,2.3,45,0.00,CLR,,0.00,278.4,WeatherDisplay:10.37,2013-02-14 23:50:00,
2013-02-14 15:51:00,55.5,34.5,30.41,North,5,0.0,0.0,45,0.00,CLR,,0.00,267.6,WeatherDisplay:10.37,2013-02-14 23:51:00,
2013-02-14 15:54:00,56.7,34.4,30.41,NE,44,5.8,5.8,43,0.00,CLR,,0.00,267.6,WeatherDisplay:10.37,2013-02-14 23:54:00,
2013-02-14 15:56:00,56.7,35.0,30.41,ENE,67,4.6,4.6,44,0.00,CLR,,0.00,267.6,WeatherDisplay:10.37,2013-02-14 23:56:00,
2013-02-14 16:00:00,56.9,34.6,30.41,ENE,57,3.5,3.5,43,0.00,CLR,,0.00,264.0,WeatherDisplay:10.37,2013-02-15 00:00:00,
2013-02-14 16:01:00,57.5,35.2,30.41,ENE,62,2.3,2.3,43,0.00,CLR,,0.00,264.0,WeatherDisplay:10.37,2013-02-15 00:01:00,
2013-02-14 16:02:00,57.7,34.7,30.41,ENE,62,2.3,2.3,42,0.00,CLR,,0.00,248.4,WeatherDisplay:10.37,2013-02-15 00:02:00,
2013-02-14 16:05:00,56.1,34.5,30.41,North,349,5.8,5.8,44,0.00,CLR,,0.00,242.4,WeatherDisplay:10.37,2013-02-15 00:05:00,
2013-02-14 16:06:00,55.2,34.2,30.41,North,5,4.6,4.6,45,0.00,CLR,,0.00,208.8,WeatherDisplay:10.37,2013-02-15 00:06:00,
2013-02-14 16:07:00,55.1,34.7,30.41,North,9,4.6,4.6,46,0.00,CLR,,0.00,208.8,WeatherDisplay:10.37,2013-02-15 00:07:00,
2013-02-14 16:10:00,54.0,34.2,30.41,North,355,4.6,4.6,47,0.00,CLR,,0.00,194.4,WeatherDisplay:10.37,2013-02-15 00:10:00,
2013-02-14 16:11:00,54.2,34.9,30.41,NNW,338,4.0,4.0,48,0.00,CLR,,0.00,189.6,WeatherDisplay:10.37,2013-02-15 00:11:00,
2013-02-14 16:12:00,54.2,34.9,30.41,NNW,338,2.3,2.3,48,0.00,CLR,,0.00,189.6,WeatherDisplay:10.37,2013-02-15 00:12:00,
2013-02-14 16:15:00,54.1,34.3,30.41,NNW,342,2.0,5.0,47,0.00,CLR,,0.00,194.4,WeatherDisplay:10.37,2013-02-15 00:15:00,
2013-02-14 16:16:00,53.8,34.6,30.41,NNW,330,3.5,3.5,48,0.00,CLR,,0.00,169.2,WeatherDisplay:10.37,2013-02-15 00:16:00,
2013-02-14 16:17:00,53.8,34.6,30.41,NNW,331,3.5,3.5,48,0.00,CLR,,0.00,169.2,WeatherDisplay:10.37,2013-02-15 00:17:00,
2013-02-14 16:20:00,54.1,34.8,30.41,NNW,340,1.0,4.0,48,0.00,CLR,,0.00,160.8,WeatherDisplay:10.37,2013-02-15 00:20:00,
2013-02-14 16:22:00,53.6,34.4,30.41,NNW,348,3.5,3.5,48,0.00,CLR,,0.00,158.4,WeatherDisplay:10.37,2013-02-15 00:22:00,
2013-02-14 16:25:00,53.9,34.6,30.41,NNW,345,1.0,4.0,48,0.00,CLR,,0.00,130.8,WeatherDisplay:10.37,2013-02-15 00:25:00,
2013-02-14 16:27:00,54.1,35.3,30.41,North,350,1.1,1.1,49,0.00,CLR,,0.00,128.4,WeatherDisplay:10.37,2013-02-15 00:27:00,
2013-02-14 16:30:00,54.2,34.9,30.41,NNW,347,2.0,5.0,48,0.00,CLR,,0.00,139.2,WeatherDisplay:10.37,2013-02-15 00:30:00,
2013-02-14 16:32:00,54.1,35.3,30.40,North,355,3.5,3.5,49,0.00,CLR,,0.00,136.8,WeatherDisplay:10.37,2013-02-15 00:32:00,
2013-02-14 16:35:00,54.4,35.1,30.41,North,350,2.3,2.3,48,0.00,CLR,,0.00,108.0,WeatherDisplay:10.37,2013-02-15 00:35:00,
2013-02-14 16:37:00,54.5,35.2,30.40,North,355,4.0,4.0,48,0.00,CLR,,0.00,105.6,WeatherDisplay:10.37,2013-02-15 00:37:00,
2013-02-14 16:40:00,53.9,35.2,30.40,North,355,1.1,1.1,49,0.00,CLR,,0.00,103.2,WeatherDisplay:10.37,2013-02-15 00:40:00,
2013-02-14 16:42:00,53.7,35.0,30.41,NNW,344,2.3,2.3,49,0.00,CLR,,0.00,100.8,WeatherDisplay:10.37,2013-02-15 00:42:00,
2013-02-14 16:43:00,53.7,35.5,30.40,North,355,3.5,3.5,50,0.00,CLR,,0.00,99.6,WeatherDisplay:10.37,2013-02-15 00:43:00,
2013-02-14 16:46:00,53.4,35.2,30.40,North,9,3.5,3.5,50,0.00,CLR,,0.00,91.2,WeatherDisplay:10.37,2013-02-15 00:46:00,
2013-02-14 16:47:00,53.5,35.3,30.40,North,5,4.6,4.6,50,0.00,CLR,,0.00,86.4,WeatherDisplay:10.37,2013-02-15 00:47:00,
2013-02-14 16:48:00,53.3,35.1,30.40,North,355,5.8,5.8,50,0.00,CLR,,0.00,82.8,WeatherDisplay:10.37,2013-02-15 00:48:00,
2013-02-14 16:51:00,53.1,35.4,30.40,North,360,3.5,3.5,51,0.00,CLR,,0.00,74.4,WeatherDisplay:10.37,2013-02-15 00:51:00,
2013-02-14 16:52:00,52.8,35.2,30.40,NNW,333,3.5,3.5,51,0.00,CLR,,0.00,67.2,WeatherDisplay:10.37,2013-02-15 00:52:00,
2013-02-14 16:53:00,52.7,35.1,30.40,NNW,333,3.5,3.5,51,0.00,CLR,,0.00,67.2,WeatherDisplay:10.37,2013-02-15 00:53:00,
2013-02-14 16:57:00,52.2,35.1,30.40,North,5,5.8,5.8,52,0.00,CLR,,0.00,58.8,WeatherDisplay:10.37,2013-02-15 00:57:00,
2013-02-14 16:58:00,52.0,34.9,30.40,North,9,5.8,5.8,52,0.00,CLR,,0.00,55.2,WeatherDisplay:10.37,2013-02-15 00:58:00,
2013-02-14 17:02:00,51.6,35.0,30.40,NNW,341,3.5,3.5,53,0.00,SCT,,0.00,33.6,WeatherDisplay:10.37,2013-02-15 01:02:00,
2013-02-14 17:03:00,51.4,35.3,30.40,NNW,336,3.5,3.5,54,0.00,SCT,,0.00,33.6,WeatherDisplay:10.37,2013-02-15 01:03:00,
2013-02-14 17:07:00,51.1,35.5,30.40,NNW,343,1.1,1.1,55,0.00,SCT,,0.00,31.2,WeatherDisplay:10.37,2013-02-15 01:07:00,
2013-02-14 17:08:00,50.9,35.3,30.40,NNW,347,4.0,4.0,55,0.00,FEW,,0.00,30.0,WeatherDisplay:10.37,2013-02-15 01:08:00,
2013-02-14 17:09:00,50.9,35.3,30.40,NNW,348,5.0,5.0,55,0.00,FEW,,0.00,30.0,WeatherDisplay:10.37,2013-02-15 01:09:00,
2013-02-14 17:13:00,50.7,35.6,30.40,North,5,4.6,4.6,56,0.00,CLR,,0.00,27.6,WeatherDisplay:10.37,2013-02-15 01:13:00,
2013-02-14 17:14:00,50.7,35.6,30.40,North,5,4.6,4.6,56,0.00,CLR,,0.00,27.6,WeatherDisplay:10.37,2013-02-15 01:14:00,
2013-02-14 17:18:00,50.4,35.7,30.40,North,360,4.6,4.6,57,0.00,CLR,,0.00,25.2,WeatherDisplay:10.37,2013-02-15 01:18:00,
2013-02-14 17:19:00,50.3,35.6,30.40,North,360,3.5,3.5,57,0.00,CLR,,0.00,22.8,WeatherDisplay:10.37,2013-02-15 01:19:00,
2013-02-14 17:23:00,50.1,35.4,30.40,North,355,3.5,3.5,57,0.00,CLR,,0.00,21.6,WeatherDisplay:10.37,2013-02-15 01:23:00,
2013-02-14 17:25:00,49.8,35.6,30.40,North,355,1.1,0.0,58,0.00,CLR,,0.00,19.2,WeatherDisplay:10.37,2013-02-15 01:25:00,
2013-02-14 17:28:00,49.5,35.3,30.39,North,360,2.3,2.3,58,0.00,CLR,,0.00,16.8,WeatherDisplay:10.37,2013-02-15 01:28:00,
2013-02-14 17:29:00,49.4,35.2,30.39,North,360,3.5,3.5,58,0.00,,,0.00,14.4,WeatherDisplay:10.37,2013-02-15 01:29:00,
2013-02-14 17:30:00,49.3,35.6,30.39,North,360,3.5,3.5,59,0.00,,,0.00,14.4,WeatherDisplay:10.37,2013-02-15 01:30:00,
2013-02-14 17:33:00,49.1,35.4,30.39,North,9,3.5,3.5,59,0.00,,,0.00,13.2,WeatherDisplay:10.37,2013-02-15 01:33:00,
2013-02-14 17:34:00,49.1,35.4,30.39,North,360,4.6,4.6,59,0.00,,,0.00,10.8,WeatherDisplay:10.37,2013-02-15 01:34:00,
2013-02-14 17:35:00,49.1,35.4,30.39,North,360,4.6,4.6,59,0.00,,,0.00,10.8,WeatherDisplay:10.37,2013-02-15 01:35:00,
2013-02-14 17:39:00,48.7,35.4,30.39,North,5,3.5,3.5,60,0.00,,,0.00,8.4,WeatherDisplay:10.37,2013-02-15 01:39:00,
2013-02-14 17:40:00,48.6,35.3,30.39,North,9,1.1,1.1,60,0.00,,,0.00,8.4,WeatherDisplay:10.37,2013-02-15 01:40:00,
2013-02-14 17:44:00,48.4,35.6,30.40,North,9,3.5,3.5,61,0.00,,,0.00,6.0,WeatherDisplay:10.37,2013-02-15 01:44:00,
2013-02-14 17:45:00,48.3,35.5,30.40,North,5,3.5,3.5,61,0.00,,,0.00,0.0,WeatherDisplay:10.37,2013-02-15 01:45:00,
2013-02-14 17:49:00,48.3,35.5,30.40,North,5,1.1,1.1,61,0.00,,,0.00,0.0,WeatherDisplay:10.37,2013-02-15 01:49:00,
2013-02-14 17:50:00,48.2,35.4,30.40,North,5,3.5,3.5,61,0.00,,,0.00,0.0,WeatherDisplay:10.37,2013-02-15 01:50:00,
2013-02-14 17:54:00,47.9,35.1,30.40,North,5,2.3,2.3,61,0.00,,,0.00,0.0,WeatherDisplay:10.37,2013-02-15 01:54:00,
2013-02-14 17:55:00,47.9,35.1,30.40,North,5,1.1,1.1,61,0.00,,,0.00,0.0,WeatherDisplay:10.37,2013-02-15 01:55:00,
2013-02-14 17:59:00,47.6,35.2,30.40,North,5,2.3,2.3,62,0.00,,,0.00,0.0,WeatherDisplay:10.37,2013-02-15 01:59:00,
2013-02-14 18:00:00,47.6,35.2,30.40,North,5,2.3,2.3,62,0.00,,,0.00,0.0,WeatherDisplay:10.37,2013-02-15 02:00:00,
2013-02-14 18:04:00,47.5,35.5,30.40,North,5,1.1,1.1,63,0.00,,,0.00,0.0,WeatherDisplay:10.37,2013-02-15 02:04:00,
2013-02-14 18:05:00,47.5,35.5,30.40,North,360,3.0,3.0,63,0.00,,,0.00,0.0,WeatherDisplay:10.37,2013-02-15 02:05:00,
2013-02-14 18:10:00,47.3,35.3,30.41,North,5,2.3,2.3,63,0.00,,,0.00,0.0,WeatherDisplay:10.37,2013-02-15 02:10:00,
2013-02-14 18:11:00,47.3,35.7,30.41,North,5,2.3,0.0,64,0.00,,,0.00,0.0,WeatherDisplay:10.37,2013-02-15 02:11:00,
2013-02-14 18:15:00,47.0,35.4,30.41,North,5,0.0,0.0,64,0.00,,,0.00,0.0,WeatherDisplay:10.37,2013-02-15 02:15:00,
2013-02-14 18:16:00,46.9,35.4,30.41,North,5,0.0,0.1,64,0.00,,,0.00,0.0,WeatherDisplay:10.37,2013-02-15 02:16:00,
2013-02-14 18:20:00,46.3,35.2,30.41,North,5,0.0,0.0,65,0.00,,,0.00,0.0,WeatherDisplay:10.37,2013-02-15 02:20:00,
2013-02-14 18:21:00,46.1,35.0,30.41,North,360,2.0,2.0,65,0.00,,,0.00,0.0,WeatherDisplay:10.37,2013-02-15 02:21:00,
2013-02-14 18:25:00,45.7,35.4,30.41,NNW,348,2.3,2.3,67,0.00,,,0.00,0.0,WeatherDisplay:10.37,2013-02-15 02:25:00,
2013-02-14 18:26:00,45.6,35.6,30.41,NNW,348,1.1,0.0,68,0.00,,,0.00,0.0,WeatherDisplay:10.37,2013-02-15 02:26:00,
2013-02-14 18:30:00,45.4,35.8,30.42,NNW,346,3.5,3.5,69,0.00,,,0.00,0.0,WeatherDisplay:10.37,2013-02-15 02:30:00,
2013-02-14 18:31:00,45.3,35.7,30.42,NNW,346,1.1,1.1,69,0.00,,,0.00,0.0,WeatherDisplay:10.37,2013-02-15 02:31:00,
2013-02-14 18:35:00,45.0,35.8,30.42,NNW,329,3.5,3.5,70,0.00,,,0.00,0.0,WeatherDisplay:10.37,2013-02-15 02:35:00,
2013-02-14 18:36:00,45.0,36.2,30.42,NNW,329,3.5,3.5,71,0.00,,,0.00,0.0,WeatherDisplay:10.37,2013-02-15 02:36:00,
2013-02-14 18:40:00,44.7,36.2,30.42,NW,324,3.5,3.5,72,0.00,,,0.00,0.0,WeatherDisplay:10.37,2013-02-15 02:40:00,
2013-02-14 18:41:00,44.6,36.1,30.42,NW,324,0.0,0.0,72,0.00,,,0.00,0.0,WeatherDisplay:10.37,2013-02-15 02:41:00,
2013-02-14 18:45:00,44.3,36.2,30.42,North,360,2.3,2.3,73,0.00,,,0.00,0.0,WeatherDisplay:10.37,2013-02-15 02:45:00,
2013-02-14 18:46:00,44.3,36.2,30.42,North,360,2.3,2.3,73,0.00,,,0.00,0.0,WeatherDisplay:10.37,2013-02-15 02:46:00,
2013-02-14 18:47:00,44.2,36.1,30.42,North,360,2.3,2.3,73,0.00,,,0.00,0.0,WeatherDisplay:10.37,2013-02-15 02:47:00,
2013-02-14 18:50:00,44.0,36.2,30.42,NNW,335,2.3,2.3,74,0.00,,,0.00,0.0,WeatherDisplay:10.37,2013-02-15 02:50:00,
2013-02-14 18:51:00,44.0,36.2,30.42,NNW,327,4.6,4.6,74,0.00,,,0.00,0.0,WeatherDisplay:10.37,2013-02-15 02:51:00,
2013-02-14 18:53:00,44.0,36.6,30.42,NNW,348,2.3,2.3,75,0.00,,,0.00,0.0,WeatherDisplay:10.37,2013-02-15 02:53:00,
2013-02-14 18:55:00,44.0,36.6,30.43,NNW,331,3.5,3.5,75,0.00,,,0.00,0.0,WeatherDisplay:10.37,2013-02-15 02:55:00,
2013-02-14 18:56:00,44.0,36.6,30.43,NNW,345,4.6,4.6,75,0.00,,,0.00,0.0,WeatherDisplay:10.37,2013-02-15 02:56:00,
2013-02-14 18:58:00,43.9,36.5,30.43,NNW,330,3.5,3.5,75,0.00,,,0.00,0.0,WeatherDisplay:10.37,2013-02-15 02:58:00,
2013-02-14 19:01:00,43.8,36.4,30.43,North,355,2.3,2.3,75,0.00,,,0.00,0.0,WeatherDisplay:10.37,2013-02-15 03:01:00,
2013-02-14 19:03:00,43.7,36.3,30.43,NNW,340,2.3,2.3,75,0.00,,,0.00,0.0,WeatherDisplay:10.37,2013-02-15 03:03:00,
2013-02-14 19:06:00,43.6,36.5,30.43,NW,325,3.5,3.5,76,0.00,,,0.00,0.0,WeatherDisplay:10.37,2013-02-15 03:06:00,
2013-02-14 19:08:00,43.5,36.4,30.43,NW,319,4.6,4.6,76,0.00,,,0.00,0.0,WeatherDisplay:10.37,2013-02-15 03:08:00,
2013-02-14 19:11:00,43.4,36.3,30.43,NW,321,3.5,3.5,76,0.00,,,0.00,0.0,WeatherDisplay:10.37,2013-02-15 03:11:00,
2013-02-14 19:12:00,43.4,36.3,30.43,NW,321,3.5,3.5,76,0.00,,,0.00,0.0,WeatherDisplay:10.37,2013-02-15 03:12:00,
2013-02-14 19:13:00,43.3,36.2,30.43,NNW,346,1.1,1.1,76,0.00,,,0.00,0.0,WeatherDisplay:10.37,2013-02-15 03:13:00,
2013-02-14 19:16:00,43.0,36.3,30.43,NW,320,3.5,3.5,77,0.00,,,0.00,0.0,WeatherDisplay:10.37,2013-02-15 03:16:00,
2013-02-14 19:17:00,43.1,36.4,30.43,NW,311,3.5,3.5,77,0.00,,,0.00,0.0,WeatherDisplay:10.37,2013-02-15 03:17:00,
2013-02-14 19:18:00,43.0,36.3,30.43,NW,318,3.0,3.0,77,0.00,,,0.00,0.0,WeatherDisplay:10.37,2013-02-15 03:18:00,
2013-02-14 19:21:00,42.9,36.2,30.43,NW,325,1.1,1.1,77,0.00,,,0.00,0.0,WeatherDisplay:10.37,2013-02-15 03:21:00,
2013-02-14 19:22:00,42.9,36.2,30.43,NW,325,1.1,0.0,77,0.00,,,0.00,0.0,WeatherDisplay:10.37,2013-02-15 03:22:00,
2013-02-14 19:23:00,42.7,36.0,30.43,NW,325,1.1,0.0,77,0.00,,,0.00,0.0,WeatherDisplay:10.37,2013-02-15 03:23:00,
2013-02-14 19:26:00,42.6,36.2,30.43,NW,325,0.0,0.0,78,0.00,,,0.00,0.0,WeatherDisplay:10.37,2013-02-15 03:26:00,
2013-02-14 19:27:00,42.5,36.1,30.43,NW,325,0.0,0.0,78,0.00,,,0.00,0.0,WeatherDisplay:10.37,2013-02-15 03:27:00,
2013-02-14 19:28:00,42.5,36.1,30.43,NW,325,0.0,0.0,78,0.00,,,0.00,0.0,WeatherDisplay:10.37,2013-02-15 03:28:00,
2013-02-14 19:31:00,42.3,35.9,30.44,NW,325,0.0,0.0,78,0.00,,,0.00,0.0,WeatherDisplay:10.37,2013-02-15 03:31:00,
2013-02-14 19:32:00,42.3,35.9,30.44,NW,325,0.0,0.0,78,0.00,,,0.00,0.0,WeatherDisplay:10.37,2013-02-15 03:32:00,
2013-02-14 19:33:00,42.2,35.8,30.43,NW,325,0.0,0.0,78,0.00,,,0.00,0.0,WeatherDisplay:10.37,2013-02-15 03:33:00,
2013-02-14 19:36:00,42.0,36.0,30.43,NW,325,0.0,0.0,79,0.00,,,0.00,0.0,WeatherDisplay:10.37,2013-02-15 03:36:00,
2013-02-14 19:37:00,42.0,36.0,30.43,NW,325,0.0,0.0,79,0.00,,,0.00,0.0,WeatherDisplay:10.37,2013-02-15 03:37:00,
2013-02-14 19:38:00,41.9,35.5,30.43,NW,325,0.0,0.0,78,0.00,,,0.00,0.0,WeatherDisplay:10.37,2013-02-15 03:38:00,
2013-02-14 19:39:00,41.8,35.8,30.43,NW,325,0.0,0.0,79,0.00,,,0.00,0.0,WeatherDisplay:10.37,2013-02-15 03:39:00,
2013-02-14 19:41:00,41.5,35.5,30.43,NW,325,1.1,1.1,79,0.00,,,0.00,0.0,WeatherDisplay:10.37,2013-02-15 03:41:00,
2013-02-14 19:42:00,41.5,35.5,30.43,NW,325,2.0,2.0,79,0.00,,,0.00,0.0,WeatherDisplay:10.37,2013-02-15 03:42:00,
2013-02-14 19:43:00,41.4,35.4,30.43,NW,325,2.3,2.3,79,0.00,,,0.00,0.0,WeatherDisplay:10.37,2013-02-15 03:43:00,
2013-02-14 19:44:00,41.3,35.3,30.44,NW,325,1.1,1.1,79,0.00,,,0.00,0.0,WeatherDisplay:10.37,2013-02-15 03:44:00,
2013-02-14 19:47:00,41.1,35.1,30.43,NW,325,1.1,0.0,79,0.00,,,0.00,0.0,WeatherDisplay:10.37,2013-02-15 03:47:00,
2013-02-14 19:48:00,41.0,35.3,30.43,NW,325,0.0,0.0,80,0.00,,,0.00,0.0,WeatherDisplay:10.37,2013-02-15 03:48:00,
2013-02-14 19:49:00,41.0,35.3,30.44,NW,325,0.0,0.0,80,0.00,,,0.00,0.0,WeatherDisplay:10.37,2013-02-15 03:49:00,
2013-02-14 19:52:00,41.0,35.6,30.44,NW,325,1.1,0.0,81,0.00,,,0.00,0.0,WeatherDisplay:10.37,2013-02-15 03:52:00,
2013-02-14 19:53:00,41.1,35.7,30.44,NW,325,1.1,0.0,81,0.00,,,0.00,0.0,WeatherDisplay:10.37,2013-02-15 03:53:00,
2013-02-14 19:54:00,41.1,35.7,30.44,NW,325,1.1,0.0,81,0.00,,,0.00,0.0,WeatherDisplay:10.37,2013-02-15 03:54:00,
2013-02-14 19:57:00,40.9,35.2,30.44,NW,325,0.0,0.0,80,0.00,,,0.00,0.0,WeatherDisplay:10.37,2013-02-15 03:57:00,
2013-02-14 19:58:00,40.8,35.1,30.44,NW,325,0.0,0.0,80,0.00,,,0.00,0.0,WeatherDisplay:10.37,2013-02-15 03:58:00,
2013-02-14 19:59:00,40.7,35.0,30.44,NW,325,1.1,0.0,80,0.00,,,0.00,0.0,WeatherDisplay:10.37,2013-02-15 03:59:00,
2013-02-14 20:02:00,40.7,35.0,30.44,East,81,1.1,1.1,80,0.00,CLR,,0.00,0.0,WeatherDisplay:10.37,2013-02-15 04:02:00,
2013-02-14 20:03:00,40.4,34.7,30.44,East,82,2.3,2.3,80,0.00,CLR,,0.00,0.0,WeatherDisplay:10.37,2013-02-15 04:03:00,
2013-02-14 20:04:00,40.4,34.7,30.44,East,82,2.3,2.3,80,0.00,CLR,,0.00,0.0,WeatherDisplay:10.37,2013-02-15 04:04:00,
2013-02-14 20:07:00,39.9,34.2,30.44,East,82,0.0,0.0,80,0.00,CLR,,0.00,0.0,WeatherDisplay:10.37,2013-02-15 04:07:00,
2013-02-14 20:09:00,39.7,34.3,30.44,East,82,0.0,0.0,81,0.00,CLR,,0.00,0.0,WeatherDisplay:10.37,2013-02-15 04:09:00,
2013-02-14 20:10:00,39.6,34.2,30.43,East,82,0.0,0.0,81,0.00,CLR,,0.00,0.0,WeatherDisplay:10.37,2013-02-15 04:10:00,
2013-02-14 20:12:00,39.5,34.2,30.43,East,82,0.0,0.0,81,0.00,CLR,,0.00,0.0,WeatherDisplay:10.37,2013-02-15 04:12:00,
2013-02-14 20:14:00,39.5,34.5,30.44,East,82,0.0,0.0,82,0.00,CLR,,0.00,0.0,WeatherDisplay:10.37,2013-02-15 04:14:00,
2013-02-14 20:15:00,39.4,34.4,30.44,East,82,0.0,0.0,82,0.00,CLR,,0.00,0.0,WeatherDisplay:10.37,2013-02-15 04:15:00,
2013-02-14 20:18:00,39.4,34.7,30.44,East,82,0.0,0.0,83,0.00,CLR,,0.00,0.0,WeatherDisplay:10.37,2013-02-15 04:18:00,
2013-02-14 20:19:00,39.4,34.7,30.44,East,82,0.0,0.0,83,0.00,CLR,,0.00,0.0,WeatherDisplay:10.37,2013-02-15 04:19:00,
2013-02-14 20:20:00,39.3,34.6,30.44,East,82,1.1,0.0,83,0.00,CLR,,0.00,0.0,WeatherDisplay:10.37,2013-02-15 04:20:00,
2013-02-14 20:23:00,39.2,34.5,30.44,SSE,167,1.1,1.1,83,0.00,CLR,,0.00,0.0,WeatherDisplay:10.37,2013-02-15 04:23:00,
2013-02-14 20:24:00,39.2,34.5,30.44,SSE,167,2.3,2.3,83,0.00,CLR,,0.00,0.0,WeatherDisplay:10.37,2013-02-15 04:24:00,
2013-02-14 20:25:00,39.2,34.5,30.43,SSE,167,1.0,0.0,83,0.00,CLR,,0.00,0.0,WeatherDisplay:10.37,2013-02-15 04:25:00,
2013-02-14 20:28:00,39.3,34.6,30.43,SSE,167,1.1,1.1,83,0.00,CLR,,0.00,0.0,WeatherDisplay:10.37,2013-02-15 04:28:00,
2013-02-14 20:29:00,39.3,34.9,30.44,SSE,168,1.1,1.1,84,0.00,CLR,,0.00,0.0,WeatherDisplay:10.37,2013-02-15 04:29:00,
2013-02-14 20:30:00,39.4,35.0,30.44,SSE,168,1.1,1.1,84,0.00,CLR,,0.00,0.0,WeatherDisplay:10.37,2013-02-15 04:30:00,
2013-02-14 20:33:00,39.4,34.7,30.44,SSE,168,0.0,0.0,83,0.00,CLR,,0.00,0.0,WeatherDisplay:10.37,2013-02-15 04:33:00,
2013-02-14 20:34:00,39.3,34.6,30.44,SSE,168,0.0,0.0,83,0.00,CLR,,0.00,0.0,WeatherDisplay:10.37,2013-02-15 04:34:00,
2013-02-14 20:35:00,39.3,34.6,30.44,SSE,168,0.0,0.0,83,0.00,CLR,,0.00,0.0,WeatherDisplay:10.37,2013-02-15 04:35:00,
2013-02-14 20:38:00,39.0,34.3,30.44,SSE,168,0.0,0.2,83,0.00,CLR,,0.00,0.0,WeatherDisplay:10.37,2013-02-15 04:38:00,
2013-02-14 20:39:00,38.9,34.2,30.44,SSE,168,1.1,0.0,83,0.00,CLR,,0.00,0.0,WeatherDisplay:10.37,2013-02-15 04:39:00,
2013-02-14 20:40:00,38.8,34.1,30.44,SSE,168,0.0,0.0,83,0.00,CLR,,0.00,0.0,WeatherDisplay:10.37,2013-02-15 04:40:00,
2013-02-14 20:43:00,38.5,33.8,30.44,SSE,168,0.0,0.0,83,0.00,CLR,,0.00,0.0,WeatherDisplay:10.37,2013-02-15 04:43:00,
2013-02-14 20:44:00,38.4,33.7,30.44,SSE,168,0.0,0.0,83,0.00,CLR,,0.00,0.0,WeatherDisplay:10.37,2013-02-15 04:44:00,
2013-02-14 20:45:00,38.4,33.7,30.43,SSE,168,0.0,0.0,83,0.00,CLR,,0.00,0.0,WeatherDisplay:10.37,2013-02-15 04:45:00,
2013-02-14 20:46:00,38.4,33.7,30.43,SSE,168,0.0,0.0,83,0.00,CLR,,0.00,0.0,WeatherDisplay:10.37,2013-02-15 04:46:00,
2013-02-14 20:48:00,38.3,33.9,30.44,SSE,168,0.0,0.0,84,0.00,CLR,,0.00,0.0,WeatherDisplay:10.37,2013-02-15 04:48:00,
2013-02-14 20:49:00,38.4,34.0,30.44,SSE,168,0.0,0.0,84,0.00,CLR,,0.00,0.0,WeatherDisplay:10.37,2013-02-15 04:49:00,
2013-02-14 20:50:00,38.4,34.0,30.44,SSE,168,0.0,0.0,84,0.00,CLR,,0.00,0.0,WeatherDisplay:10.37,2013-02-15 04:50:00,
2013-02-14 20:51:00,38.4,34.0,30.44,SSE,168,0.0,0.0,84,0.00,CLR,,0.00,0.0,WeatherDisplay:10.37,2013-02-15 04:51:00,
2013-02-14 20:54:00,38.3,33.9,30.44,SSE,168,0.0,0.0,84,0.00,CLR,,0.00,0.0,WeatherDisplay:10.37,2013-02-15 04:54:00,
2013-02-14 20:55:00,38.2,33.8,30.44,SSE,168,0.0,1.0,84,0.00,CLR,,0.00,0.0,WeatherDisplay:10.37,2013-02-15 04:55:00,
2013-02-14 20:56:00,38.1,33.7,30.44,SSE,168,1.1,1.1,84,0.00,CLR,,0.00,0.0,WeatherDisplay:10.37,2013-02-15 04:56:00,
2013-02-14 20:59:00,37.7,33.3,30.44,SSE,168,1.1,0.0,84,0.00,CLR,,0.00,0.0,WeatherDisplay:10.37,2013-02-15 04:59:00,
2013-02-14 21:00:00,37.7,33.3,30.44,SSE,168,0.0,0.0,84,0.00,CLR,,0.00,0.0,WeatherDisplay:10.37,2013-02-15 05:00:00,
2013-02-14 21:05:00,37.4,33.3,30.44,SSW,200,1.1,0.0,85,0.00,,,0.00,0.0,WeatherDisplay:10.37,2013-02-15 05:05:00,
2013-02-14 21:10:00,37.5,34.0,30.44,SSE,161,1.1,1.1,87,0.00,,,0.00,0.0,WeatherDisplay:10.37,2013-02-15 05:10:00,
2013-02-14 21:15:00,37.6,33.8,30.44,SSE,161,0.0,0.0,86,0.00,,,0.00,0.0,WeatherDisplay:10.37,2013-02-15 05:15:00,
2013-02-14 21:16:00,37.6,33.8,30.44,SSE,161,0.0,0.0,86,0.00,,,0.00,0.0,WeatherDisplay:10.37,2013-02-15 05:16:00,
2013-02-14 21:20:00,37.4,33.6,30.44,SSE,161,0.0,0.0,86,0.00,,,0.00,0.0,WeatherDisplay:10.37,2013-02-15 05:20:00,
2013-02-14 21:21:00,37.4,33.6,30.44,SSE,161,0.0,0.0,86,0.00,,,0.00,0.0,WeatherDisplay:10.37,2013-02-15 05:21:00,
2013-02-14 21:25:00,37.3,33.2,30.44,SSE,161,0.0,0.0,85,0.00,,,0.00,0.0,WeatherDisplay:10.37,2013-02-15 05:25:00,
2013-02-14 21:26:00,37.3,33.2,30.44,SSE,161,0.0,0.0,85,0.00,,,0.00,0.0,WeatherDisplay:10.37,2013-02-15 05:26:00,
2013-02-14 21:30:00,37.0,32.9,30.44,SSE,161,1.1,1.1,85,0.00,,,0.00,0.0,WeatherDisplay:10.37,2013-02-15 05:30:00,
2013-02-14 21:31:00,37.0,32.9,30.44,SSE,161,1.1,1.1,85,0.00,,,0.00,0.0,WeatherDisplay:10.37,2013-02-15 05:31:00,
2013-02-14 21:35:00,36.6,32.8,30.44,SSE,161,0.0,0.0,86,0.00,,,0.00,0.0,WeatherDisplay:10.37,2013-02-15 05:35:00,
2013-02-14 21:36:00,36.6,32.8,30.44,SSE,161,0.0,0.0,86,0.00,,,0.00,0.0,WeatherDisplay:10.37,2013-02-15 05:36:00,
2013-02-14 21:41:00,36.3,32.8,30.44,SSE,161,0.0,0.0,87,0.00,,,0.00,0.0,WeatherDisplay:10.37,2013-02-15 05:41:00,
2013-02-14 21:42:00,36.2,32.7,30.44,SSE,161,0.0,0.0,87,0.00,,,0.00,0.0,WeatherDisplay:10.37,2013-02-15 05:42:00,
2013-02-14 21:46:00,36.1,32.9,30.44,South,173,2.3,2.3,88,0.00,,,0.00,0.0,WeatherDisplay:10.37,2013-02-15 05:46:00,
2013-02-14 21:47:00,36.1,32.9,30.44,South,174,3.5,3.5,88,0.00,,,0.00,0.0,WeatherDisplay:10.37,2013-02-15 05:47:00,
2013-02-14 21:51:00,36.0,32.8,30.44,South,174,1.1,1.1,88,0.00,,,0.00,0.0,WeatherDisplay:10.37,2013-02-15 05:51:00,
2013-02-14 21:52:00,36.0,32.8,30.44,South,174,1.1,1.1,88,0.00,,,0.00,0.0,WeatherDisplay:10.37,2013-02-15 05:52:00,
2013-02-14 21:56:00,35.9,32.7,30.44,South,180,2.3,2.3,88,0.00,,,0.00,0.0,WeatherDisplay:10.37,2013-02-15 05:56:00,
2013-02-14 21:57:00,35.8,32.6,30.44,South,178,2.3,2.3,88,0.00,,,0.00,0.0,WeatherDisplay:10.37,2013-02-15 05:57:00,
2013-02-14 22:01:00,35.8,32.6,30.44,South,177,1.1,0.0,88,0.00,,,0.00,0.0,WeatherDisplay:10.37,2013-02-15 06:01:00,
2013-02-14 22:02:00,35.8,32.6,30.44,South,177,1.1,1.1,88,0.00,,,0.00,0.0,WeatherDisplay:10.37,2013-02-15 06:02:00,
2013-02-14 22:06:00,35.7,32.5,30.44,South,177,0.0,0.0,88,0.00,,,0.00,0.0,WeatherDisplay:10.37,2013-02-15 06:06:00,
2013-02-14 22:08:00,35.7,32.5,30.44,South,177,0.0,0.1,88,0.00,,,0.00,0.0,WeatherDisplay:10.37,2013-02-15 06:08:00,
2013-02-14 22:11:00,35.7,32.5,30.44,SE,140,3.0,3.0,88,0.00,,,0.00,0.0,WeatherDisplay:10.37,2013-02-15 06:11:00,
2013-02-14 22:13:00,35.7,32.8,30.44,SSE,158,3.5,3.5,89,0.00,,,0.00,0.0,WeatherDisplay:10.37,2013-02-15 06:13:00,
2013-02-14 22:16:00,35.6,32.4,30.44,SSE,161,1.1,1.1,88,0.00,,,0.00,0.0,WeatherDisplay:10.37,2013-02-15 06:16:00,
2013-02-14 22:17:00,35.5,32.3,30.44,SSE,161,2.3,2.3,88,0.00,,,0.00,0.0,WeatherDisplay:10.37,2013-02-15 06:17:00,
2013-02-14 22:18:00,35.5,32.3,30.44,SSE,161,0.0,0.0,88,0.00,,,0.00,0.0,WeatherDisplay:10.37,2013-02-15 06:18:00,
2013-02-14 22:21:00,35.3,32.1,30.44,SSE,161,1.1,0.0,88,0.00,,,0.00,0.0,WeatherDisplay:10.37,2013-02-15 06:21:00,
2013-02-14 22:22:00,35.3,32.1,30.44,SSE,161,1.1,1.1,88,0.00,,,0.00,0.0,WeatherDisplay:10.37,2013-02-15 06:22:00,
2013-02-14 22:23:00,35.2,32.0,30.44,SSE,161,1.1,0.0,88,0.00,,,0.00,0.0,WeatherDisplay:10.37,2013-02-15 06:23:00,
2013-02-14 22:26:00,35.1,31.9,30.44,SSE,161,0.0,0.0,88,0.00,,,0.00,0.0,WeatherDisplay:10.37,2013-02-15 06:26:00,
2013-02-14 22:27:00,35.1,31.9,30.44,SSE,161,0.0,0.0,88,0.00,,,0.00,0.0,WeatherDisplay:10.37,2013-02-15 06:27:00,
2013-02-14 22:28:00,35.0,31.8,30.44,SSE,161,0.0,0.0,88,0.00,,,0.00,0.0,WeatherDisplay:10.37,2013-02-15 06:28:00,
2013-02-14 22:31:00,34.9,32.0,30.44,SSE,161,0.0,0.0,89,0.00,,,0.00,0.0,WeatherDisplay:10.37,2013-02-15 06:31:00,
2013-02-14 22:32:00,34.8,31.9,30.44,SSE,161,0.0,0.0,89,0.00,,,0.00,0.0,WeatherDisplay:10.37,2013-02-15 06:32:00,
2013-02-14 22:33:00,34.8,31.9,30.44,SSE,161,0.0,0.0,89,0.00,,,0.00,0.0,WeatherDisplay:10.37,2013-02-15 06:33:00,
2013-02-14 22:36:00,34.9,32.0,30.44,SSE,161,1.1,1.1,89,0.00,,,0.00,0.0,WeatherDisplay:10.37,2013-02-15 06:36:00,
2013-02-14 22:37:00,34.9,32.0,30.44,SSE,161,1.1,1.1,89,0.00,,,0.00,0.0,WeatherDisplay:10.37,2013-02-15 06:37:00,
2013-02-14 22:38:00,34.9,32.0,30.44,SSE,161,1.1,1.1,89,0.00,,,0.00,0.0,WeatherDisplay:10.37,2013-02-15 06:38:00,
2013-02-14 22:41:00,34.7,31.8,30.44,SSE,161,1.1,0.0,89,0.00,,,0.00,0.0,WeatherDisplay:10.37,2013-02-15 06:41:00,
2013-02-14 22:42:00,34.7,31.8,30.44,SSE,161,1.1,0.0,89,0.00,,,0.00,0.0,WeatherDisplay:10.37,2013-02-15 06:42:00,
2013-02-14 22:43:00,34.5,31.3,30.44,SSE,161,0.0,0.1,88,0.00,,,0.00,0.0,WeatherDisplay:10.37,2013-02-15 06:43:00,
2013-02-14 22:44:00,34.5,31.6,30.44,SSE,161,1.1,0.0,89,0.00,,,0.00,0.0,WeatherDisplay:10.37,2013-02-15 06:44:00,
2013-02-14 22:47:00,34.3,31.1,30.44,SSE,161,0.0,0.1,88,0.00,,,0.00,0.0,WeatherDisplay:10.37,2013-02-15 06:47:00,
2013-02-14 22:48:00,34.2,31.3,30.44,SSE,161,1.1,1.1,89,0.00,,,0.00,0.0,WeatherDisplay:10.37,2013-02-15 06:48:00,
2013-02-14 22:49:00,34.2,31.3,30.44,SSE,161,1.1,1.1,89,0.00,,,0.00,0.0,WeatherDisplay:10.37,2013-02-15 06:49:00,
2013-02-14 22:52:00,34.0,31.1,30.44,SSE,150,1.1,1.1,89,0.00,,,0.00,0.0,WeatherDisplay:10.37,2013-02-15 06:52:00,
2013-02-14 22:54:00,33.8,30.6,30.44,SSE,150,1.1,1.1,88,0.00,,,0.00,0.0,WeatherDisplay:10.37,2013-02-15 06:54:00,
2013-02-14 22:57:00,33.5,30.6,30.44,SSE,150,2.0,2.0,89,0.00,,,0.00,0.0,WeatherDisplay:10.37,2013-02-15 06:57:00,
2013-02-14 22:59:00,33.3,30.4,30.44,SSE,150,1.1,0.0,89,0.00,,,0.00,0.0,WeatherDisplay:10.37,2013-02-15 06:59:00,
2013-02-14 23:02:00,33.0,30.1,30.45,SSE,150,1.1,1.1,89,0.00,,,0.00,0.0,WeatherDisplay:10.37,2013-02-15 07:02:00,
2013-02-14 23:03:00,33.0,30.1,30.45,SSE,150,1.1,1.1,89,0.00,,,0.00,0.0,WeatherDisplay:10.37,2013-02-15 07:03:00,
2013-02-14 23:04:00,32.9,30.0,30.45,SSE,150,1.1,1.1,89,0.00,,,0.00,0.0,WeatherDisplay:10.37,2013-02-15 07:04:00,
2013-02-14 23:07:00,32.7,30.1,30.44,SSE,150,1.1,1.1,90,0.00,,,0.00,0.0,WeatherDisplay:10.37,2013-02-15 07:07:00,
2013-02-14 23:08:00,32.7,30.1,30.44,SSE,150,1.1,0.0,90,0.00,,,0.00,0.0,WeatherDisplay:10.37,2013-02-15 07:08:00,
2013-02-14 23:09:00,32.7,30.1,30.44,SSE,150,1.1,0.0,90,0.00,,,0.00,0.0,WeatherDisplay:10.37,2013-02-15 07:09:00,
2013-02-14 23:12:00,32.6,30.0,30.44,SSE,150,1.1,1.1,90,0.00,,,0.00,0.0,WeatherDisplay:10.37,2013-02-15 07:12:00,
2013-02-14 23:13:00,32.6,30.0,30.44,SSE,150,2.3,2.3,90,0.00,,,0.00,0.0,WeatherDisplay:10.37,2013-02-15 07:13:00,
2013-02-14 23:14:00,32.5,29.9,30.44,SSE,150,2.3,2.3,90,0.00,,,0.00,0.0,WeatherDisplay:10.37,2013-02-15 07:14:00,
2013-02-14 23:18:00,32.4,29.8,30.44,SSE,150,1.1,1.1,90,0.00,,,0.00,0.0,WeatherDisplay:10.37,2013-02-15 07:18:00,
2013-02-14 23:19:00,32.3,29.7,30.44,SSE,150,1.1,0.0,90,0.00,,,0.00,0.0,WeatherDisplay:10.37,2013-02-15 07:19:00,
2013-02-14 23:20:00,32.2,29.6,30.44,SSE,150,1.1,1.1,90,0.00,,,0.00,0.0,WeatherDisplay:10.37,2013-02-15 07:20:00,
2013-02-14 23:23:00,32.0,29.4,30.44,SSE,150,0.0,0.0,90,0.00,,,0.00,0.0,WeatherDisplay:10.37,2013-02-15 07:23:00,
2013-02-14 23:24:00,32.0,29.4,30.44,SSE,150,0.0,0.1,90,0.00,,,0.00,0.0,WeatherDisplay:10.37,2013-02-15 07:24:00,
2013-02-14 23:25:00,31.9,29.3,30.44,SSE,150,0.0,0.0,90,0.00,,,0.00,0.0,WeatherDisplay:10.37,2013-02-15 07:25:00,
2013-02-14 23:28:00,31.8,29.2,30.44,SSE,150,0.0,0.0,90,0.00,,,0.00,0.0,WeatherDisplay:10.37,2013-02-15 07:28:00,
2013-02-14 23:29:00,31.8,29.2,30.44,SSE,150,0.0,0.0,90,0.00,,,0.00,0.0,WeatherDisplay:10.37,2013-02-15 07:29:00,
2013-02-14 23:30:00,31.7,29.1,30.44,SSE,150,0.0,0.0,90,0.00,,,0.00,0.0,WeatherDisplay:10.37,2013-02-15 07:30:00,
2013-02-14 23:34:00,31.6,29.0,30.44,SSE,150,0.0,0.0,90,0.00,,,0.00,0.0,WeatherDisplay:10.37,2013-02-15 07:34:00,
2013-02-14 23:35:00,31.5,28.9,30.44,SSE,150,0.0,0.0,90,0.00,,,0.00,0.0,WeatherDisplay:10.37,2013-02-15 07:35:00,
2013-02-14 23:39:00,31.4,28.8,30.44,SSE,150,1.1,0.0,90,0.00,,,0.00,0.0,WeatherDisplay:10.37,2013-02-15 07:39:00,
2013-02-14 23:40:00,31.3,28.7,30.44,SSE,150,0.0,0.0,90,0.00,,,0.00,0.0,WeatherDisplay:10.37,2013-02-15 07:40:00,
2013-02-14 23:41:00,31.3,28.7,30.44,SSE,150,0.0,0.0,90,0.00,,,0.00,0.0,WeatherDisplay:10.37,2013-02-15 07:41:00,
2013-02-14 23:44:00,31.2,28.6,30.44,SSE,150,0.0,0.0,90,0.00,,,0.00,0.0,WeatherDisplay:10.37,2013-02-15 07:44:00,
2013-02-14 23:45:00,31.2,28.6,30.44,SSE,150,0.0,0.0,90,0.00,,,0.00,0.0,WeatherDisplay:10.37,2013-02-15 07:45:00,
2013-02-14 23:46:00,31.1,28.5,30.44,SSE,150,0.0,0.0,90,0.00,,,0.00,0.0,WeatherDisplay:10.37,2013-02-15 07:46:00,
2013-02-14 23:47:00,31.1,28.5,30.44,SSE,150,0.0,0.0,90,0.00,,,0.00,0.0,WeatherDisplay:10.37,2013-02-15 07:47:00,
2013-02-14 23:49:00,31.0,28.4,30.44,SSE,150,2.3,2.3,90,0.00,,,0.00,0.0,WeatherDisplay:10.37,2013-02-15 07:49:00,
2013-02-14 23:50:00,31.0,28.4,30.44,SSE,150,1.0,2.0,90,0.00,,,0.00,0.0,WeatherDisplay:10.37,2013-02-15 07:50:00,
2013-02-14 23:51:00,31.0,28.4,30.44,SE,145,2.3,2.3,90,0.00,,,0.00,0.0,WeatherDisplay:10.37,2013-02-15 07:51:00,
2013-02-14 23:52:00,30.9,28.3,30.45,SE,144,2.3,2.3,90,0.00,,,0.00,0.0,WeatherDisplay:10.37,2013-02-15 07:52:00,
2013-02-14 23:54:00,30.9,28.3,30.45,SE,135,2.3,2.3,90,0.00,,,0.00,0.0,WeatherDisplay:10.37,2013-02-15 07:54:00,
2013-02-14 23:55:00,30.9,28.3,30.45,SE,143,1.0,3.0,90,0.00,,,0.00,0.0,WeatherDisplay:10.37,2013-02-15 07:55:00,
2013-02-14 23:56:00,30.8,28.5,30.45,SE,135,1.1,1.1,91,0.00,,,0.00,0.0,WeatherDisplay:10.37,2013-02-15 07:56:00,
2013-02-14 23:58:00,30.8,28.5,30.45,SE,135,1.1,1.1,91,0.00,,,0.00,0.0,WeatherDisplay:10.37,2013-02-15 07:58:00,